Time,TemperatureF,DewpointF,PressureIn,WindDirection,WindDirectionDegrees,WindSpeedMPH,WindSpeedGustMPH,Humidity,HourlyPrecipIn,Conditions,Clouds,dailyrainin,SoftwareType,DateUTC
2013-07-18 00:00:00,82.4,75.6,30.13,SSE,164,0.0,0.0,72,0.00,,,0.00,meteohub,2013-07-18 04:00:00,
2013-07-18 00:01:00,82.4,75.9,30.13,South,186,0.0,0.0,73,0.00,,,0.00,meteohub,2013-07-18 04:01:00,
2013-07-18 00:06:00,82.4,76.1,30.13,SSW,209,0.0,0.0,74,0.00,,,0.00,meteohub,2013-07-18 04:06:00,
2013-07-18 00:07:00,82.2,75.9,30.13,WSW,254,0.0,0.0,74,0.00,,,0.00,meteohub,2013-07-18 04:07:00,
2013-07-18 00:11:00,82.4,75.2,30.10,WSW,254,0.0,0.0,72,0.00,,,0.00,meteohub,2013-07-18 04:11:00,
2013-07-18 00:12:00,82.4,75.2,30.10,SW,232,0.0,0.0,72,0.00,,,0.00,meteohub,2013-07-18 04:12:00,
2013-07-18 00:16:00,82.4,75.2,30.10,North,6,0.0,0.0,71,0.00,,,0.00,meteohub,2013-07-18 04:16:00,
2013-07-18 00:17:00,82.4,75.2,30.10,NNW,344,0.0,0.0,71,0.00,,,0.00,meteohub,2013-07-18 04:17:00,
2013-07-18 00:18:00,82.4,75.6,30.10,NNW,344,0.0,0.0,72,0.00,,,0.00,meteohub,2013-07-18 04:18:00,
2013-07-18 00:21:00,82.2,75.6,30.10,SSW,209,0.0,0.0,73,0.00,,,0.00,meteohub,2013-07-18 04:21:00,
2013-07-18 00:22:00,82.0,76.1,30.13,SW,232,0.0,0.0,74,0.00,,,0.00,meteohub,2013-07-18 04:22:00,
2013-07-18 00:23:00,82.0,76.1,30.13,WNW,299,0.0,0.0,74,0.00,,,0.00,meteohub,2013-07-18 04:23:00,
2013-07-18 00:24:00,82.0,75.9,30.13,WSW,254,0.0,0.0,74,0.00,,,0.00,meteohub,2013-07-18 04:24:00,
2013-07-18 00:27:00,81.9,76.1,30.13,SSW,209,0.0,0.0,75,0.00,,,0.00,meteohub,2013-07-18 04:27:00,
2013-07-18 00:28:00,81.9,76.1,30.13,WNW,299,0.0,0.0,75,0.00,,,0.00,meteohub,2013-07-18 04:28:00,
2013-07-18 00:29:00,81.9,76.1,30.13,SW,232,0.0,0.0,75,0.00,,,0.00,meteohub,2013-07-18 04:29:00,
2013-07-18 00:30:00,81.9,75.9,30.13,WNW,299,0.0,0.0,75,0.00,,,0.00,meteohub,2013-07-18 04:30:00,
2013-07-18 00:32:00,81.9,75.9,30.13,WNW,299,0.0,0.0,75,0.00,,,0.00,meteohub,2013-07-18 04:32:00,
2013-07-18 00:33:00,81.9,75.9,30.13,WNW,299,0.0,0.0,75,0.00,,,0.00,meteohub,2013-07-18 04:33:00,
2013-07-18 00:34:00,81.7,75.4,30.13,NW,322,0.0,0.0,74,0.00,,,0.00,meteohub,2013-07-18 04:34:00,
2013-07-18 00:35:00,81.7,75.4,30.13,NNW,344,0.0,0.0,74,0.00,,,0.00,meteohub,2013-07-18 04:35:00,
2013-07-18 00:37:00,81.7,75.6,30.13,WNW,299,0.0,0.0,74,0.00,,,0.00,meteohub,2013-07-18 04:37:00,
2013-07-18 00:38:00,81.9,75.2,30.13,WSW,254,0.0,0.0,73,0.00,,,0.00,meteohub,2013-07-18 04:38:00,
2013-07-18 00:40:00,81.9,75.4,30.13,SSW,209,0.0,0.0,73,0.00,,,0.00,meteohub,2013-07-18 04:40:00,
2013-07-18 00:41:00,81.9,75.4,30.13,SSW,209,0.0,0.0,73,0.00,,,0.00,meteohub,2013-07-18 04:41:00,
2013-07-18 00:42:00,82.0,75.0,30.13,WSW,254,0.0,0.0,72,0.00,,,0.00,meteohub,2013-07-18 04:42:00,
2013-07-18 00:43:00,82.0,75.0,30.13,SSE,164,0.0,0.0,72,0.00,,,0.00,meteohub,2013-07-18 04:43:00,
2013-07-18 00:44:00,82.0,75.4,30.13,SW,232,0.0,0.0,73,0.00,,,0.00,meteohub,2013-07-18 04:44:00,
2013-07-18 00:45:00,81.9,75.7,30.13,SSW,209,0.0,0.0,74,0.00,,,0.00,meteohub,2013-07-18 04:45:00,
2013-07-18 00:46:00,81.9,75.7,30.13,SW,232,0.0,0.0,74,0.00,,,0.00,meteohub,2013-07-18 04:46:00,
2013-07-18 00:47:00,81.9,75.9,30.13,SW,232,0.0,0.0,75,0.00,,,0.00,meteohub,2013-07-18 04:47:00,
2013-07-18 00:49:00,81.9,75.9,30.13,SSW,209,0.0,0.0,75,0.00,,,0.00,meteohub,2013-07-18 04:49:00,
2013-07-18 00:51:00,81.7,75.7,30.13,SSW,209,0.0,0.0,75,0.00,,,0.00,meteohub,2013-07-18 04:51:00,
2013-07-18 00:52:00,81.7,75.7,30.13,WSW,254,1.0,0.0,75,0.00,,,0.00,meteohub,2013-07-18 04:52:00,
2013-07-18 00:53:00,81.7,76.1,30.13,SSW,209,0.0,0.0,76,0.00,,,0.00,meteohub,2013-07-18 04:53:00,
2013-07-18 00:54:00,81.7,76.1,30.13,SSW,209,0.0,0.0,76,0.00,,,0.00,meteohub,2013-07-18 04:54:00,
2013-07-18 00:56:00,81.5,75.9,30.13,WSW,254,4.0,4.0,76,0.00,,,0.00,meteohub,2013-07-18 04:56:00,
2013-07-18 00:57:00,81.5,75.9,30.13,WSW,254,0.0,3.0,76,0.00,,,0.00,meteohub,2013-07-18 04:57:00,
2013-07-18 00:58:00,81.5,75.9,30.13,SW,232,0.0,3.0,76,0.00,,,0.00,meteohub,2013-07-18 04:58:00,
2013-07-18 00:59:00,81.5,75.9,30.13,SSW,209,0.0,3.0,76,0.00,,,0.00,meteohub,2013-07-18 04:59:00,
2013-07-18 01:00:00,81.5,75.9,30.13,WSW,254,0.0,3.0,76,0.00,,,0.00,meteohub,2013-07-18 05:00:00,
2013-07-18 01:01:00,81.3,75.4,30.13,WSW,254,0.0,4.0,75,0.00,,,0.00,meteohub,2013-07-18 05:01:00,
2013-07-18 01:02:00,81.3,75.4,30.13,SW,232,0.0,4.0,75,0.00,,,0.00,meteohub,2013-07-18 05:02:00,
2013-07-18 01:04:00,81.3,75.4,30.13,SW,232,0.0,4.0,75,0.00,,,0.00,meteohub,2013-07-18 05:04:00,
2013-07-18 01:05:00,81.3,75.4,30.13,South,186,0.0,4.0,75,0.00,,,0.00,meteohub,2013-07-18 05:05:00,
2013-07-18 01:07:00,81.5,75.7,30.13,SSW,209,0.0,4.0,75,0.00,,,0.00,meteohub,2013-07-18 05:07:00,
2013-07-18 01:09:00,81.7,75.6,30.10,South,186,0.0,4.0,74,0.00,,,0.00,meteohub,2013-07-18 05:09:00,
2013-07-18 01:11:00,81.5,75.7,30.10,WSW,254,0.0,4.0,75,0.00,,,0.00,meteohub,2013-07-18 05:11:00,
2013-07-18 01:12:00,81.5,75.6,30.10,SSW,209,0.0,4.0,75,0.00,,,0.00,meteohub,2013-07-18 05:12:00,
2013-07-18 01:14:00,81.5,75.9,30.10,SW,232,0.0,4.0,76,0.00,,,0.00,meteohub,2013-07-18 05:14:00,
2013-07-18 01:15:00,81.5,75.9,30.10,SSW,209,0.0,4.0,76,0.00,,,0.00,meteohub,2013-07-18 05:15:00,
2013-07-18 01:16:00,81.3,76.3,30.10,WSW,254,0.0,2.0,77,0.00,,,0.00,meteohub,2013-07-18 05:16:00,
2013-07-18 01:17:00,81.3,76.3,30.10,WNW,299,0.0,2.0,77,0.00,,,0.00,meteohub,2013-07-18 05:17:00,
2013-07-18 01:19:00,81.1,76.5,30.10,SSW,209,0.0,2.0,78,0.00,,,0.00,meteohub,2013-07-18 05:19:00,
2013-07-18 01:20:00,81.1,76.5,30.10,South,186,0.0,2.0,78,0.00,,,0.00,meteohub,2013-07-18 05:20:00,
2013-07-18 01:21:00,81.1,76.5,30.10,SSE,164,0.0,2.0,78,0.00,,,0.00,meteohub,2013-07-18 05:21:00,
2013-07-18 01:23:00,81.1,76.5,30.10,WSW,254,0.0,2.0,78,0.00,,,0.00,meteohub,2013-07-18 05:23:00,
2013-07-18 01:24:00,81.1,76.3,30.10,WSW,254,0.0,2.0,78,0.00,,,0.00,meteohub,2013-07-18 05:24:00,
2013-07-18 01:25:00,81.1,76.3,30.10,WSW,254,0.0,2.0,78,0.00,,,0.00,meteohub,2013-07-18 05:25:00,
2013-07-18 01:27:00,81.1,76.3,30.10,South,186,0.0,1.0,78,0.00,,,0.00,meteohub,2013-07-18 05:27:00,
2013-07-18 01:28:00,81.1,76.3,30.10,WSW,254,0.0,1.0,78,0.00,,,0.00,meteohub,2013-07-18 05:28:00,
2013-07-18 01:30:00,81.0,76.3,30.10,NNW,344,0.0,1.0,78,0.00,,,0.00,meteohub,2013-07-18 05:30:00,
2013-07-18 01:33:00,81.0,76.1,30.10,NNW,344,0.0,0.0,78,0.00,,,0.00,meteohub,2013-07-18 05:33:00,
2013-07-18 01:35:00,80.8,76.1,30.10,ENE,74,0.0,0.0,78,0.00,,,0.00,meteohub,2013-07-18 05:35:00,
2013-07-18 01:36:00,80.8,75.9,30.10,NE,52,0.0,0.0,78,0.00,,,0.00,meteohub,2013-07-18 05:36:00,
2013-07-18 01:38:00,80.6,76.3,30.10,NNE,29,0.0,0.0,79,0.00,,,0.00,meteohub,2013-07-18 05:38:00,
2013-07-18 01:40:00,80.6,76.3,30.10,NNE,29,0.0,0.0,79,0.00,,,0.00,meteohub,2013-07-18 05:40:00,
2013-07-18 01:41:00,80.6,76.6,30.10,NNE,29,0.0,0.0,80,0.00,,,0.00,meteohub,2013-07-18 05:41:00,
2013-07-18 01:43:00,80.4,76.5,30.10,ESE,119,0.0,0.0,80,0.00,,,0.00,meteohub,2013-07-18 05:43:00,
2013-07-18 01:44:00,80.4,76.5,30.10,ENE,74,0.0,0.0,80,0.00,,,0.00,meteohub,2013-07-18 05:44:00,
2013-07-18 01:45:00,80.4,76.1,30.10,ENE,74,0.0,0.0,79,0.00,,,0.00,meteohub,2013-07-18 05:45:00,
2013-07-18 01:46:00,80.4,76.3,30.10,West,276,0.0,0.0,79,0.00,,,0.00,meteohub,2013-07-18 05:46:00,
2013-07-18 01:47:00,80.4,76.5,30.10,SW,232,0.0,0.0,79,0.00,,,0.00,meteohub,2013-07-18 05:47:00,
2013-07-18 01:48:00,80.6,76.1,30.10,SW,232,0.0,0.0,78,0.00,,,0.00,meteohub,2013-07-18 05:48:00,
2013-07-18 01:49:00,80.6,76.3,30.10,SSW,209,0.0,0.0,78,0.00,,,0.00,meteohub,2013-07-18 05:49:00,
2013-07-18 01:51:00,80.6,76.3,30.10,WSW,254,0.0,0.0,78,0.00,,,0.00,meteohub,2013-07-18 05:51:00,
2013-07-18 01:53:00,80.6,76.1,30.10,WNW,299,0.0,0.0,78,0.00,,,0.00,meteohub,2013-07-18 05:53:00,
2013-07-18 01:54:00,80.6,76.1,30.10,WSW,254,0.0,0.0,78,0.00,,,0.00,meteohub,2013-07-18 05:54:00,
2013-07-18 01:57:00,80.4,76.3,30.10,SSW,209,0.0,0.0,79,0.00,,,0.00,meteohub,2013-07-18 05:57:00,
2013-07-18 01:58:00,80.4,76.1,30.10,ENE,74,0.0,0.0,79,0.00,,,0.00,meteohub,2013-07-18 05:58:00,
2013-07-18 01:59:00,80.2,76.1,30.10,ENE,74,0.0,0.0,79,0.00,,,0.00,meteohub,2013-07-18 05:59:00,
2013-07-18 02:00:00,80.2,76.1,30.10,SE,142,0.0,0.0,79,0.00,,,0.00,meteohub,2013-07-18 06:00:00,
2013-07-18 02:02:00,80.2,76.3,30.10,ESE,119,0.0,0.0,80,0.00,,,0.00,meteohub,2013-07-18 06:02:00,
2013-07-18 02:03:00,80.2,76.3,30.10,SSE,164,0.0,0.0,80,0.00,,,0.00,meteohub,2013-07-18 06:03:00,
2013-07-18 02:04:00,80.2,76.3,30.10,SSE,164,0.0,0.0,80,0.00,,,0.00,meteohub,2013-07-18 06:04:00,
2013-07-18 02:05:00,80.2,76.3,30.10,SSE,164,0.0,0.0,80,0.00,,,0.00,meteohub,2013-07-18 06:05:00,
2013-07-18 02:07:00,80.1,76.6,30.10,SSW,209,0.0,0.0,81,0.00,,,0.00,meteohub,2013-07-18 06:07:00,
2013-07-18 02:09:00,80.1,76.6,30.10,South,186,1.0,0.0,81,0.00,,,0.00,meteohub,2013-07-18 06:09:00,
2013-07-18 02:10:00,80.1,76.1,30.10,SSW,209,1.0,0.0,80,0.00,,,0.00,meteohub,2013-07-18 06:10:00,
2013-07-18 02:11:00,79.9,76.1,30.10,SSW,209,0.0,0.0,80,0.00,,,0.00,meteohub,2013-07-18 06:11:00,
2013-07-18 02:12:00,79.9,76.1,30.10,SSW,209,0.0,0.0,80,0.00,,,0.00,meteohub,2013-07-18 06:12:00,
2013-07-18 02:14:00,80.1,76.3,30.10,SSW,209,1.0,0.0,80,0.00,,,0.00,meteohub,2013-07-18 06:14:00,
2013-07-18 02:16:00,79.9,76.1,30.10,SSE,164,0.0,2.0,80,0.00,,,0.00,meteohub,2013-07-18 06:16:00,
2013-07-18 02:17:00,79.9,76.1,30.10,South,186,0.0,2.0,80,0.00,,,0.00,meteohub,2013-07-18 06:17:00,
2013-07-18 02:19:00,80.1,76.5,30.10,SSW,209,0.0,2.0,81,0.00,,,0.00,meteohub,2013-07-18 06:19:00,
2013-07-18 02:20:00,80.1,76.5,30.10,NNW,344,0.0,2.0,81,0.00,,,0.00,meteohub,2013-07-18 06:20:00,
2013-07-18 02:21:00,80.1,76.5,30.10,West,276,0.0,2.0,81,0.00,,,0.00,meteohub,2013-07-18 06:21:00,
2013-07-18 02:22:00,80.1,76.5,30.10,WSW,254,0.0,2.0,81,0.00,,,0.00,meteohub,2013-07-18 06:22:00,
2013-07-18 02:24:00,79.9,76.6,30.10,WSW,254,0.0,2.0,82,0.00,,,0.00,meteohub,2013-07-18 06:24:00,
2013-07-18 02:25:00,79.9,76.6,30.10,SW,232,0.0,2.0,82,0.00,,,0.00,meteohub,2013-07-18 06:25:00,
2013-07-18 02:26:00,79.7,76.6,30.10,SSW,209,0.0,2.0,82,0.00,,,0.00,meteohub,2013-07-18 06:26:00,
2013-07-18 02:27:00,79.7,76.6,30.10,SSW,209,1.0,2.0,82,0.00,,,0.00,meteohub,2013-07-18 06:27:00,
2013-07-18 02:29:00,79.7,76.6,30.10,SSW,209,0.0,2.0,82,0.00,,,0.00,meteohub,2013-07-18 06:29:00,
2013-07-18 02:30:00,79.7,76.6,30.10,SSW,209,0.0,2.0,82,0.00,,,0.00,meteohub,2013-07-18 06:30:00,
2013-07-18 02:31:00,79.5,76.5,30.10,SW,232,0.0,2.0,82,0.00,,,0.00,meteohub,2013-07-18 06:31:00,
2013-07-18 02:32:00,79.5,76.5,30.10,WSW,254,0.0,2.0,82,0.00,,,0.00,meteohub,2013-07-18 06:32:00,
2013-07-18 02:34:00,79.5,76.8,30.10,WSW,254,0.0,2.0,83,0.00,,,0.00,meteohub,2013-07-18 06:34:00,
2013-07-18 02:35:00,79.5,76.8,30.10,West,276,0.0,2.0,83,0.00,,,0.00,meteohub,2013-07-18 06:35:00,
2013-07-18 02:37:00,79.5,76.8,30.10,WSW,254,0.0,2.0,83,0.00,,,0.00,meteohub,2013-07-18 06:37:00,
2013-07-18 02:39:00,79.5,76.8,30.10,SSE,164,0.0,2.0,83,0.00,,,0.00,meteohub,2013-07-18 06:39:00,
2013-07-18 02:40:00,79.5,76.8,30.10,SSW,209,0.0,2.0,83,0.00,,,0.00,meteohub,2013-07-18 06:40:00,
2013-07-18 02:42:00,79.7,76.8,30.10,SSW,209,0.0,2.0,83,0.00,,,0.00,meteohub,2013-07-18 06:42:00,
2013-07-18 02:43:00,79.7,76.8,30.10,SSW,209,0.0,2.0,83,0.00,,,0.00,meteohub,2013-07-18 06:43:00,
2013-07-18 02:44:00,79.5,76.6,30.10,SW,232,0.0,2.0,83,0.00,,,0.00,meteohub,2013-07-18 06:44:00,
2013-07-18 02:45:00,79.5,76.6,30.10,SSE,164,0.0,0.0,83,0.00,,,0.00,meteohub,2013-07-18 06:45:00,
2013-07-18 02:46:00,79.5,76.6,30.10,South,186,0.0,0.0,83,0.00,,,0.00,meteohub,2013-07-18 06:46:00,
2013-07-18 02:47:00,79.5,76.6,30.10,South,186,0.0,0.0,83,0.00,,,0.00,meteohub,2013-07-18 06:47:00,
2013-07-18 02:49:00,79.5,76.3,30.10,South,186,0.0,0.0,82,0.00,,,0.00,meteohub,2013-07-18 06:49:00,
2013-07-18 02:50:00,79.5,76.3,30.10,SSW,209,0.0,0.0,82,0.00,,,0.00,meteohub,2013-07-18 06:50:00,
2013-07-18 02:51:00,79.5,76.3,30.10,South,186,3.0,0.0,82,0.00,,,0.00,meteohub,2013-07-18 06:51:00,
2013-07-18 02:52:00,79.3,76.3,30.10,SSW,209,2.0,0.0,82,0.00,,,0.00,meteohub,2013-07-18 06:52:00,
2013-07-18 02:54:00,79.3,76.3,30.10,SSE,164,3.0,0.0,82,0.00,,,0.00,meteohub,2013-07-18 06:54:00,
2013-07-18 02:55:00,79.3,76.3,30.10,SSW,209,3.0,0.0,82,0.00,,,0.00,meteohub,2013-07-18 06:55:00,
2013-07-18 02:56:00,79.3,76.3,30.10,SSW,209,0.0,3.0,82,0.00,,,0.00,meteohub,2013-07-18 06:56:00,
2013-07-18 02:58:00,79.2,76.1,30.10,WSW,254,0.0,3.0,82,0.00,,,0.00,meteohub,2013-07-18 06:58:00,
2013-07-18 02:59:00,79.3,76.3,30.10,SW,232,2.0,3.0,82,0.00,,,0.00,meteohub,2013-07-18 06:59:00,
2013-07-18 03:00:00,79.3,76.3,30.10,SSW,209,0.0,3.0,82,0.00,,,0.00,meteohub,2013-07-18 07:00:00,
2013-07-18 03:01:00,79.3,76.1,30.10,SSW,209,0.0,3.0,81,0.00,,,0.00,meteohub,2013-07-18 07:01:00,
2013-07-18 03:03:00,79.5,76.3,30.10,SW,232,0.0,3.0,81,0.00,,,0.00,meteohub,2013-07-18 07:03:00,
2013-07-18 03:05:00,79.5,76.3,30.10,WSW,254,2.0,3.0,81,0.00,,,0.00,meteohub,2013-07-18 07:05:00,
2013-07-18 03:07:00,79.3,76.1,30.10,SSW,209,0.0,3.0,81,0.00,,,0.00,meteohub,2013-07-18 07:07:00,
2013-07-18 03:09:00,79.5,76.1,30.07,SSW,209,0.0,3.0,81,0.00,,,0.00,meteohub,2013-07-18 07:09:00,
2013-07-18 03:10:00,79.3,75.9,30.07,SSW,209,0.0,2.0,81,0.00,,,0.00,meteohub,2013-07-18 07:10:00,
2013-07-18 03:11:00,79.3,76.3,30.07,SSE,164,0.0,2.0,82,0.00,,,0.00,meteohub,2013-07-18 07:11:00,
2013-07-18 03:12:00,79.3,76.3,30.07,SSE,164,0.0,2.0,82,0.00,,,0.00,meteohub,2013-07-18 07:12:00,
2013-07-18 03:16:00,30.0,76.5,-100.00,North,-999,-999.0,2.0,83,0.00,,,0.00,meteohub,2013-07-18 07:16:00,
2013-07-18 03:17:00,30.0,76.5,30.09,SW,232,0.0,2.0,83,0.00,,,0.00,meteohub,2013-07-18 07:17:00,
2013-07-18 03:18:00,79.3,76.1,30.07,SSW,209,0.0,2.0,82,0.00,,,0.00,meteohub,2013-07-18 07:18:00,
2013-07-18 03:22:00,79.3,75.7,30.07,SSW,209,0.0,2.0,81,0.00,,,0.00,meteohub,2013-07-18 07:22:00,
2013-07-18 03:23:00,79.3,75.7,30.07,WSW,254,0.0,2.0,81,0.00,,,0.00,meteohub,2013-07-18 07:23:00,
2013-07-18 03:24:00,79.3,75.7,30.07,SW,232,0.0,2.0,81,0.00,,,0.00,meteohub,2013-07-18 07:24:00,
2013-07-18 03:27:00,79.3,76.1,30.07,SSW,209,1.0,0.0,82,0.00,,,0.00,meteohub,2013-07-18 07:27:00,
2013-07-18 03:28:00,79.3,76.1,30.07,SSE,164,0.0,0.0,82,0.00,,,0.00,meteohub,2013-07-18 07:28:00,
2013-07-18 03:29:00,79.2,75.9,30.07,South,186,0.0,0.0,82,0.00,,,0.00,meteohub,2013-07-18 07:29:00,
2013-07-18 03:32:00,79.2,76.3,30.07,South,186,2.0,2.0,83,0.00,,,0.00,meteohub,2013-07-18 07:32:00,
2013-07-18 03:33:00,79.2,76.3,30.07,South,186,2.0,2.0,83,0.00,,,0.00,meteohub,2013-07-18 07:33:00,
2013-07-18 03:35:00,79.2,76.3,30.07,SSW,209,0.0,2.0,83,0.00,,,0.00,meteohub,2013-07-18 07:35:00,
2013-07-18 03:37:00,79.2,76.3,30.07,South,186,4.0,4.0,83,0.00,,,0.00,meteohub,2013-07-18 07:37:00,
2013-07-18 03:38:00,79.2,76.3,30.07,SSW,209,3.0,3.0,83,0.00,,,0.00,meteohub,2013-07-18 07:38:00,
2013-07-18 03:39:00,79.0,76.1,30.07,South,186,3.0,3.0,83,0.00,,,0.00,meteohub,2013-07-18 07:39:00,
2013-07-18 03:40:00,79.0,76.1,30.07,WSW,254,2.0,4.0,83,0.00,,,0.00,meteohub,2013-07-18 07:40:00,
2013-07-18 03:43:00,78.8,75.7,30.07,SSE,164,2.0,4.0,82,0.00,,,0.00,meteohub,2013-07-18 07:43:00,
2013-07-18 03:44:00,78.8,75.7,30.07,SSW,209,0.0,4.0,82,0.00,,,0.00,meteohub,2013-07-18 07:44:00,
2013-07-18 03:46:00,78.8,75.4,30.07,SSW,209,2.0,4.0,81,0.00,,,0.00,meteohub,2013-07-18 07:46:00,
2013-07-18 03:48:00,79.0,75.6,30.07,SW,232,0.0,4.0,81,0.00,,,0.00,meteohub,2013-07-18 07:48:00,
2013-07-18 03:49:00,79.0,75.6,30.07,WSW,254,0.0,4.0,81,0.00,,,0.00,meteohub,2013-07-18 07:49:00,
2013-07-18 03:51:00,79.2,75.2,30.07,West,276,0.0,4.0,79,0.00,,,0.00,meteohub,2013-07-18 07:51:00,
2013-07-18 03:53:00,79.2,75.2,30.10,WSW,254,2.0,4.0,79,0.00,,,0.00,meteohub,2013-07-18 07:53:00,
2013-07-18 03:54:00,79.2,75.2,30.10,SSW,209,1.0,4.0,79,0.00,,,0.00,meteohub,2013-07-18 07:54:00,
2013-07-18 03:55:00,79.2,75.2,30.10,SSW,209,2.0,4.0,79,0.00,,,0.00,meteohub,2013-07-18 07:55:00,
2013-07-18 03:57:00,79.2,75.0,30.10,SSW,209,2.0,3.0,79,0.00,,,0.00,meteohub,2013-07-18 07:57:00,
2013-07-18 03:59:00,79.0,75.2,30.10,SSW,209,0.0,3.0,80,0.00,,,0.00,meteohub,2013-07-18 07:59:00,
2013-07-18 04:00:00,79.0,75.2,30.10,SSW,209,2.0,3.0,80,0.00,,,0.00,meteohub,2013-07-18 08:00:00,
2013-07-18 04:02:00,79.0,75.2,30.10,SW,232,1.0,3.0,80,0.00,,,0.00,meteohub,2013-07-18 08:02:00,
2013-07-18 04:04:00,79.0,75.2,30.10,SW,232,2.0,3.0,80,0.00,,,0.00,meteohub,2013-07-18 08:04:00,
2013-07-18 04:05:00,79.0,75.2,30.10,SSW,209,1.0,3.0,80,0.00,,,0.00,meteohub,2013-07-18 08:05:00,
2013-07-18 04:07:00,79.0,75.0,30.10,SW,232,1.0,3.0,80,0.00,,,0.00,meteohub,2013-07-18 08:07:00,
2013-07-18 04:10:00,78.8,75.0,30.07,WSW,254,3.0,3.0,80,0.00,,,0.00,meteohub,2013-07-18 08:10:00,
2013-07-18 04:11:00,78.8,75.0,30.07,SSW,209,0.0,3.0,80,0.00,,,0.00,meteohub,2013-07-18 08:11:00,
2013-07-18 04:12:00,78.8,75.4,30.07,SSW,209,2.0,3.0,81,0.00,,,0.00,meteohub,2013-07-18 08:12:00,
2013-07-18 04:16:00,78.8,75.2,30.07,SSW,209,0.0,3.0,81,0.00,,,0.00,meteohub,2013-07-18 08:16:00,
2013-07-18 04:17:00,78.8,75.2,30.07,WSW,254,2.0,3.0,81,0.00,,,0.00,meteohub,2013-07-18 08:17:00,
2013-07-18 04:21:00,78.8,75.2,30.07,SSW,209,0.0,3.0,81,0.00,,,0.00,meteohub,2013-07-18 08:21:00,
2013-07-18 04:22:00,78.8,75.2,30.07,SSW,209,0.0,3.0,81,0.00,,,0.00,meteohub,2013-07-18 08:22:00,
2013-07-18 04:23:00,78.8,75.2,30.07,South,186,0.0,3.0,81,0.00,,,0.00,meteohub,2013-07-18 08:23:00,
2013-07-18 04:26:00,78.6,75.4,30.07,SSW,209,0.0,2.0,82,0.00,,,0.00,meteohub,2013-07-18 08:26:00,
2013-07-18 04:27:00,78.6,75.4,30.07,SW,232,0.0,2.0,82,0.00,,,0.00,meteohub,2013-07-18 08:27:00,
2013-07-18 04:28:00,78.6,75.4,30.07,SSW,209,0.0,2.0,82,0.00,,,0.00,meteohub,2013-07-18 08:28:00,
2013-07-18 04:31:00,78.6,75.4,30.07,SSE,164,0.0,2.0,82,0.00,,,0.00,meteohub,2013-07-18 08:31:00,
2013-07-18 04:32:00,78.6,75.4,30.07,SSE,164,0.0,2.0,82,0.00,,,0.00,meteohub,2013-07-18 08:32:00,
2013-07-18 04:35:00,78.4,75.4,30.07,SSW,209,0.0,0.0,82,0.00,,,0.00,meteohub,2013-07-18 08:35:00,
2013-07-18 04:36:00,78.4,75.4,30.07,SSW,209,0.0,0.0,82,0.00,,,0.00,meteohub,2013-07-18 08:36:00,
2013-07-18 04:37:00,78.4,75.4,30.07,WSW,254,0.0,0.0,82,0.00,,,0.00,meteohub,2013-07-18 08:37:00,
2013-07-18 04:40:00,78.6,75.2,30.07,WSW,254,0.0,0.0,81,0.00,,,0.00,meteohub,2013-07-18 08:40:00,
2013-07-18 04:42:00,78.6,74.8,30.07,SW,232,0.0,0.0,80,0.00,,,0.00,meteohub,2013-07-18 08:42:00,
2013-07-18 04:43:00,78.6,74.8,30.07,SSW,209,0.0,0.0,80,0.00,,,0.00,meteohub,2013-07-18 08:43:00,
2013-07-18 04:45:00,78.4,75.0,30.07,SSW,209,0.0,1.0,81,0.00,,,0.00,meteohub,2013-07-18 08:45:00,
2013-07-18 04:47:00,78.4,75.0,30.07,WSW,254,0.0,1.0,81,0.00,,,0.00,meteohub,2013-07-18 08:47:00,
2013-07-18 04:48:00,78.4,75.0,30.07,WSW,254,0.0,1.0,81,0.00,,,0.00,meteohub,2013-07-18 08:48:00,
2013-07-18 04:49:00,78.4,75.0,30.07,SW,232,0.0,1.0,81,0.00,,,0.00,meteohub,2013-07-18 08:49:00,
2013-07-18 04:51:00,78.4,74.8,30.07,SSW,209,0.0,1.0,81,0.00,,,0.00,meteohub,2013-07-18 08:51:00,
2013-07-18 04:52:00,78.4,74.8,30.07,SW,232,2.0,2.0,81,0.00,,,0.00,meteohub,2013-07-18 08:52:00,
2013-07-18 04:53:00,78.4,74.8,30.07,WSW,254,0.0,1.0,81,0.00,,,0.00,meteohub,2013-07-18 08:53:00,
2013-07-18 04:55:00,78.4,74.8,30.07,SW,232,0.0,1.0,81,0.00,,,0.00,meteohub,2013-07-18 08:55:00,
2013-07-18 04:56:00,78.4,74.8,30.07,SSW,209,0.0,2.0,81,0.00,,,0.00,meteohub,2013-07-18 08:56:00,
2013-07-18 04:58:00,78.4,74.5,30.07,SSW,209,0.0,2.0,80,0.00,,,0.00,meteohub,2013-07-18 08:58:00,
2013-07-18 05:00:00,78.4,74.5,30.07,SW,232,0.0,2.0,80,0.00,,,0.00,meteohub,2013-07-18 09:00:00,
2013-07-18 05:01:00,78.4,74.5,30.07,SSW,209,0.0,2.0,80,0.00,,,0.00,meteohub,2013-07-18 09:01:00,
2013-07-18 05:03:00,78.4,74.8,30.07,SSW,209,1.0,2.0,81,0.00,,,0.00,meteohub,2013-07-18 09:03:00,
2013-07-18 05:04:00,78.4,74.8,30.07,WSW,254,3.0,3.0,81,0.00,,,0.00,meteohub,2013-07-18 09:04:00,
2013-07-18 05:06:00,78.3,74.7,30.07,SW,232,0.0,2.0,81,0.00,,,0.00,meteohub,2013-07-18 09:06:00,
2013-07-18 05:07:00,78.3,74.3,30.07,WSW,254,2.0,2.0,80,0.00,,,0.00,meteohub,2013-07-18 09:07:00,
2013-07-18 05:09:00,78.3,74.3,30.07,SW,232,0.0,2.0,80,0.00,,,0.00,meteohub,2013-07-18 09:09:00,
2013-07-18 05:10:00,78.3,74.3,30.07,SW,232,0.0,2.0,80,0.00,,,0.00,meteohub,2013-07-18 09:10:00,
2013-07-18 05:11:00,78.3,74.3,30.07,SSW,209,0.0,3.0,80,0.00,,,0.00,meteohub,2013-07-18 09:11:00,
2013-07-18 05:13:00,78.3,74.7,30.07,SSW,209,0.0,3.0,81,0.00,,,0.00,meteohub,2013-07-18 09:13:00,
2013-07-18 05:14:00,78.3,74.3,30.07,SSW,209,0.0,3.0,80,0.00,,,0.00,meteohub,2013-07-18 09:14:00,
2013-07-18 05:15:00,78.3,74.3,30.07,SSW,209,0.0,3.0,80,0.00,,,0.00,meteohub,2013-07-18 09:15:00,
2013-07-18 05:16:00,78.3,74.7,30.07,SSW,209,0.0,3.0,81,0.00,,,0.00,meteohub,2013-07-18 09:16:00,
2013-07-18 05:18:00,78.3,74.7,30.07,SW,232,0.0,3.0,81,0.00,,,0.00,meteohub,2013-07-18 09:18:00,
2013-07-18 05:19:00,78.3,74.7,30.07,WSW,254,0.0,3.0,81,0.00,,,0.00,meteohub,2013-07-18 09:19:00,
2013-07-18 05:20:00,78.1,75.0,30.07,WNW,299,0.0,3.0,82,0.00,,,0.00,meteohub,2013-07-18 09:20:00,
2013-07-18 05:21:00,78.1,75.0,30.07,WNW,299,0.0,3.0,82,0.00,,,0.00,meteohub,2013-07-18 09:21:00,
2013-07-18 05:22:00,78.1,74.7,30.07,WSW,254,0.0,3.0,81,0.00,,,0.00,meteohub,2013-07-18 09:22:00,
2013-07-18 05:24:00,78.1,74.7,30.07,WSW,254,0.0,3.0,81,0.00,,,0.00,meteohub,2013-07-18 09:24:00,
2013-07-18 05:26:00,78.1,74.7,30.07,SSW,209,0.0,1.0,81,0.00,,,0.00,meteohub,2013-07-18 09:26:00,
2013-07-18 05:27:00,78.3,74.5,30.07,SSW,209,0.0,1.0,80,0.00,,,0.00,meteohub,2013-07-18 09:27:00,
2013-07-18 05:28:00,78.3,74.5,30.07,SW,232,0.0,1.0,80,0.00,,,0.00,meteohub,2013-07-18 09:28:00,
2013-07-18 05:29:00,78.4,74.7,30.07,SSW,209,0.0,1.0,80,0.00,,,0.00,meteohub,2013-07-18 09:29:00,
2013-07-18 05:30:00,78.4,74.7,30.07,WSW,254,0.0,2.0,80,0.00,,,0.00,meteohub,2013-07-18 09:30:00,
2013-07-18 05:32:00,78.4,74.7,30.07,SSW,209,0.0,2.0,80,0.00,,,0.00,meteohub,2013-07-18 09:32:00,
2013-07-18 05:33:00,78.4,74.7,30.07,SSW,209,0.0,2.0,80,0.00,,,0.00,meteohub,2013-07-18 09:33:00,
2013-07-18 05:35:00,78.3,74.5,30.07,SSW,209,0.0,2.0,80,0.00,,,0.00,meteohub,2013-07-18 09:35:00,
2013-07-18 05:37:00,78.3,74.5,30.07,SW,232,2.0,2.0,80,0.00,,,0.00,meteohub,2013-07-18 09:37:00,
2013-07-18 05:38:00,78.3,74.7,30.07,WSW,254,0.0,2.0,81,0.00,,,0.00,meteohub,2013-07-18 09:38:00,
2013-07-18 05:40:00,78.3,74.7,30.07,SSW,209,2.0,2.0,81,0.00,,,0.00,meteohub,2013-07-18 09:40:00,
2013-07-18 05:42:00,78.3,74.7,30.07,SSW,209,1.0,2.0,81,0.00,,,0.00,meteohub,2013-07-18 09:42:00,
2013-07-18 05:43:00,78.3,74.7,30.07,SW,232,2.0,2.0,81,0.00,,,0.00,meteohub,2013-07-18 09:43:00,
2013-07-18 05:46:00,78.3,74.3,30.07,SW,232,2.0,2.0,80,0.00,,,0.00,meteohub,2013-07-18 09:46:00,
2013-07-18 05:48:00,78.3,74.3,30.07,SW,232,3.0,3.0,80,0.00,,,0.00,meteohub,2013-07-18 09:48:00,
2013-07-18 05:51:00,78.3,74.3,30.07,WSW,254,1.0,3.0,80,0.00,,,0.00,meteohub,2013-07-18 09:51:00,
2013-07-18 05:53:00,78.3,74.3,30.07,SW,232,1.0,3.0,80,0.00,,,0.00,meteohub,2013-07-18 09:53:00,
2013-07-18 05:54:00,78.3,74.3,30.07,SW,232,1.0,3.0,80,0.00,,,0.00,meteohub,2013-07-18 09:54:00,
2013-07-18 05:56:00,78.3,74.3,30.07,WSW,254,0.0,3.0,80,0.00,,,0.00,meteohub,2013-07-18 09:56:00,
2013-07-18 05:57:00,78.3,73.9,30.07,SW,232,0.0,3.0,79,0.00,,,0.00,meteohub,2013-07-18 09:57:00,
2013-07-18 05:58:00,78.3,73.9,30.07,SSW,209,3.0,3.0,79,0.00,,,0.00,meteohub,2013-07-18 09:58:00,
2013-07-18 05:59:00,78.3,73.9,30.07,SW,232,1.0,3.0,79,0.00,,,0.00,meteohub,2013-07-18 09:59:00,
2013-07-18 06:02:00,78.4,74.3,30.07,WNW,299,0.0,3.0,80,0.00,,,0.00,meteohub,2013-07-18 10:02:00,
2013-07-18 06:03:00,78.4,73.9,30.07,SW,232,1.0,3.0,79,0.00,,,0.00,meteohub,2013-07-18 10:03:00,
2013-07-18 06:04:00,78.4,73.9,30.07,WSW,254,3.0,3.0,79,0.00,,,0.00,meteohub,2013-07-18 10:04:00,
2013-07-18 06:07:00,78.4,73.9,30.07,WSW,254,1.0,4.0,79,0.00,,,0.00,meteohub,2013-07-18 10:07:00,
2013-07-18 06:08:00,78.4,73.8,30.07,WSW,254,0.0,4.0,79,0.00,,,0.00,meteohub,2013-07-18 10:08:00,
2013-07-18 06:09:00,78.4,73.8,30.07,NNW,344,1.0,4.0,79,0.00,,,0.00,meteohub,2013-07-18 10:09:00,
2013-07-18 06:12:00,78.6,73.9,30.07,WSW,254,0.0,4.0,79,0.00,,,0.00,meteohub,2013-07-18 10:12:00,
2013-07-18 06:14:00,78.6,73.6,30.07,WSW,254,3.0,4.0,78,0.00,,,0.00,meteohub,2013-07-18 10:14:00,
2013-07-18 06:15:00,78.6,73.9,30.07,West,276,0.0,4.0,79,0.00,,,0.00,meteohub,2013-07-18 10:15:00,
2013-07-18 06:17:00,78.6,73.9,30.07,West,276,2.0,4.0,79,0.00,,,0.00,meteohub,2013-07-18 10:17:00,
2013-07-18 06:19:00,78.6,73.8,30.07,WNW,299,0.0,4.0,79,0.00,,,0.00,meteohub,2013-07-18 10:19:00,
2013-07-18 06:20:00,78.6,73.8,30.07,SW,232,0.0,4.0,79,0.00,,,0.00,meteohub,2013-07-18 10:20:00,
2013-07-18 06:22:00,78.6,73.8,30.07,SSW,209,0.0,4.0,79,0.00,,,0.00,meteohub,2013-07-18 10:22:00,
2013-07-18 06:24:00,78.6,73.8,30.07,WSW,254,0.0,4.0,79,0.00,,,0.00,meteohub,2013-07-18 10:24:00,
2013-07-18 06:25:00,78.8,73.8,30.07,SW,232,2.0,4.0,79,0.00,,,0.00,meteohub,2013-07-18 10:25:00,
2013-07-18 06:28:00,78.8,73.8,30.07,WSW,254,1.0,4.0,79,0.00,,,0.00,meteohub,2013-07-18 10:28:00,
2013-07-18 06:29:00,79.0,73.9,30.07,WSW,254,2.0,4.0,79,0.00,,,0.00,meteohub,2013-07-18 10:29:00,
2013-07-18 06:30:00,79.0,73.9,30.07,SSW,209,1.0,4.0,79,0.00,,,0.00,meteohub,2013-07-18 10:30:00,
2013-07-18 06:31:00,79.2,73.8,30.07,NW,322,3.0,3.0,78,0.00,,,0.00,meteohub,2013-07-18 10:31:00,
2013-07-18 06:33:00,79.2,73.9,30.07,West,276,0.0,3.0,78,0.00,,,0.00,meteohub,2013-07-18 10:33:00,
2013-07-18 06:35:00,79.3,74.1,30.07,West,276,0.0,3.0,78,0.00,,,0.00,meteohub,2013-07-18 10:35:00,
2013-07-18 06:37:00,79.5,74.1,30.07,WNW,299,0.0,3.0,78,0.00,,,0.00,meteohub,2013-07-18 10:37:00,
2013-07-18 06:39:00,79.5,73.8,30.07,WSW,254,3.0,3.0,77,0.00,,,0.00,meteohub,2013-07-18 10:39:00,
2013-07-18 06:40:00,79.5,73.8,30.07,WSW,254,2.0,3.0,77,0.00,,,0.00,meteohub,2013-07-18 10:40:00,
2013-07-18 06:41:00,79.5,73.8,30.07,WSW,254,2.0,3.0,77,0.00,,,0.00,meteohub,2013-07-18 10:41:00,
2013-07-18 06:42:00,79.7,74.1,30.07,West,276,2.0,3.0,78,0.00,,,0.00,meteohub,2013-07-18 10:42:00,
2013-07-18 06:44:00,79.5,73.9,30.07,West,276,2.0,3.0,78,0.00,,,0.00,meteohub,2013-07-18 10:44:00,
2013-07-18 06:45:00,79.7,73.9,30.07,WNW,299,1.0,3.0,78,0.00,,,0.00,meteohub,2013-07-18 10:45:00,
2013-07-18 06:46:00,79.7,73.9,30.07,WSW,254,3.0,3.0,78,0.00,,,0.00,meteohub,2013-07-18 10:46:00,
2013-07-18 06:48:00,79.7,73.9,30.07,WNW,299,2.0,3.0,78,0.00,,,0.00,meteohub,2013-07-18 10:48:00,
2013-07-18 06:49:00,79.7,73.6,30.07,West,276,2.0,3.0,77,0.00,,,0.00,meteohub,2013-07-18 10:49:00,
2013-07-18 06:50:00,79.7,73.6,30.07,South,186,1.0,4.0,77,0.00,,,0.00,meteohub,2013-07-18 10:50:00,
2013-07-18 06:51:00,79.7,73.9,30.07,WSW,254,0.0,4.0,78,0.00,,,0.00,meteohub,2013-07-18 10:51:00,
2013-07-18 06:52:00,79.7,73.9,30.07,WNW,299,0.0,4.0,78,0.00,,,0.00,meteohub,2013-07-18 10:52:00,
2013-07-18 06:54:00,79.9,73.9,30.10,North,6,2.0,4.0,78,0.00,,,0.00,meteohub,2013-07-18 10:54:00,
2013-07-18 06:55:00,79.9,73.9,30.10,NNE,29,1.0,4.0,78,0.00,,,0.00,meteohub,2013-07-18 10:55:00,
2013-07-18 06:56:00,80.1,73.9,30.10,North,6,0.0,4.0,78,0.00,,,0.00,meteohub,2013-07-18 10:56:00,
2013-07-18 06:57:00,80.1,73.9,30.10,NNW,344,0.0,4.0,78,0.00,,,0.00,meteohub,2013-07-18 10:57:00,
2013-07-18 07:00:00,80.1,73.9,30.10,WNW,299,0.0,4.0,78,0.00,,,0.00,meteohub,2013-07-18 11:00:00,
2013-07-18 07:01:00,80.2,74.3,30.10,WSW,254,0.0,4.0,79,0.00,,,0.00,meteohub,2013-07-18 11:01:00,
2013-07-18 07:03:00,80.2,74.3,30.10,SSW,209,3.0,4.0,79,0.00,,,0.00,meteohub,2013-07-18 11:03:00,
2013-07-18 07:05:00,80.2,73.9,30.10,WSW,254,2.0,3.0,78,0.00,,,0.00,meteohub,2013-07-18 11:05:00,
2013-07-18 07:06:00,80.4,74.1,30.10,WNW,299,0.0,3.0,78,0.00,,,0.00,meteohub,2013-07-18 11:06:00,
2013-07-18 07:07:00,80.4,74.1,30.10,WSW,254,0.0,3.0,78,0.00,,,0.00,meteohub,2013-07-18 11:07:00,
2013-07-18 07:09:00,80.4,74.1,30.10,WSW,254,1.0,3.0,78,0.00,,,0.00,meteohub,2013-07-18 11:09:00,
2013-07-18 07:10:00,80.4,74.1,30.10,WSW,254,5.0,5.0,78,0.00,,,0.00,meteohub,2013-07-18 11:10:00,
2013-07-18 07:11:00,80.4,74.1,30.10,WSW,254,2.0,4.0,78,0.00,,,0.00,meteohub,2013-07-18 11:11:00,
2013-07-18 07:13:00,80.6,74.3,30.10,WNW,299,0.0,4.0,78,0.00,,,0.00,meteohub,2013-07-18 11:13:00,
2013-07-18 07:14:00,80.6,73.9,30.10,WNW,299,3.0,4.0,77,0.00,,,0.00,meteohub,2013-07-18 11:14:00,
2013-07-18 07:15:00,80.6,73.9,30.10,West,276,3.0,5.0,77,0.00,,,0.00,meteohub,2013-07-18 11:15:00,
2013-07-18 07:16:00,80.8,73.9,30.10,West,276,1.0,5.0,77,0.00,,,0.00,meteohub,2013-07-18 11:16:00,
2013-07-18 07:17:00,80.8,74.1,30.10,WSW,254,1.0,5.0,77,0.00,,,0.00,meteohub,2013-07-18 11:17:00,
2013-07-18 07:18:00,81.0,74.3,30.10,WSW,254,2.0,5.0,77,0.00,,,0.00,meteohub,2013-07-18 11:18:00,
2013-07-18 07:20:00,81.0,74.1,30.10,SW,232,3.0,6.0,76,0.00,,,0.00,meteohub,2013-07-18 11:20:00,
2013-07-18 07:21:00,81.1,74.3,30.10,West,276,2.0,6.0,76,0.00,,,0.00,meteohub,2013-07-18 11:21:00,
2013-07-18 07:22:00,81.1,74.3,30.10,WSW,254,3.0,6.0,76,0.00,,,0.00,meteohub,2013-07-18 11:22:00,
2013-07-18 07:23:00,81.1,74.3,30.10,SW,232,4.0,6.0,76,0.00,,,0.00,meteohub,2013-07-18 11:23:00,
2013-07-18 07:26:00,81.1,74.1,30.10,SW,232,0.0,6.0,76,0.00,,,0.00,meteohub,2013-07-18 11:26:00,
2013-07-18 07:27:00,81.3,74.1,30.10,NNW,344,1.0,6.0,76,0.00,,,0.00,meteohub,2013-07-18 11:27:00,
2013-07-18 07:28:00,81.3,74.1,30.10,WSW,254,0.0,6.0,76,0.00,,,0.00,meteohub,2013-07-18 11:28:00,
2013-07-18 07:31:00,81.7,74.1,30.10,NNW,344,1.0,6.0,76,0.00,,,0.00,meteohub,2013-07-18 11:31:00,
2013-07-18 07:32:00,81.7,74.1,30.10,North,6,2.0,6.0,76,0.00,,,0.00,meteohub,2013-07-18 11:32:00,
2013-07-18 07:33:00,81.9,74.3,30.10,NNW,344,6.0,6.0,76,0.00,,,0.00,meteohub,2013-07-18 11:33:00,
2013-07-18 07:36:00,81.7,74.3,30.10,NNW,344,4.0,8.0,76,0.00,,,0.00,meteohub,2013-07-18 11:36:00,
2013-07-18 07:37:00,81.7,74.3,30.10,West,276,3.0,8.0,76,0.00,,,0.00,meteohub,2013-07-18 11:37:00,
2013-07-18 07:38:00,81.9,74.3,30.10,NNE,29,4.0,8.0,76,0.00,,,0.00,meteohub,2013-07-18 11:38:00,
2013-07-18 07:41:00,82.0,73.9,30.10,WNW,299,3.0,8.0,75,0.00,,,0.00,meteohub,2013-07-18 11:41:00,
2013-07-18 07:42:00,81.9,73.9,30.10,NW,322,2.0,8.0,75,0.00,,,0.00,meteohub,2013-07-18 11:42:00,
2013-07-18 07:43:00,82.0,73.9,30.10,NNW,344,0.0,8.0,75,0.00,,,0.00,meteohub,2013-07-18 11:43:00,
2013-07-18 07:44:00,82.0,73.9,30.10,NNW,344,0.0,8.0,75,0.00,,,0.00,meteohub,2013-07-18 11:44:00,
2013-07-18 07:47:00,82.2,74.7,30.10,NNW,344,6.0,8.0,76,0.00,,,0.00,meteohub,2013-07-18 11:47:00,
2013-07-18 07:48:00,82.4,74.7,30.10,NNW,344,3.0,8.0,76,0.00,,,0.00,meteohub,2013-07-18 11:48:00,
2013-07-18 07:49:00,82.4,74.8,30.10,ENE,74,1.0,8.0,76,0.00,,,0.00,meteohub,2013-07-18 11:49:00,
2013-07-18 07:52:00,82.6,74.8,30.10,NNE,29,0.0,6.0,76,0.00,,,0.00,meteohub,2013-07-18 11:52:00,
2013-07-18 07:53:00,82.6,74.8,30.10,NW,322,0.0,6.0,76,0.00,,,0.00,meteohub,2013-07-18 11:53:00,
2013-07-18 07:54:00,82.8,75.0,30.10,NNW,344,0.0,6.0,76,0.00,,,0.00,meteohub,2013-07-18 11:54:00,
2013-07-18 07:55:00,82.8,75.0,30.10,NW,322,0.0,6.0,76,0.00,,,0.00,meteohub,2013-07-18 11:55:00,
2013-07-18 07:57:00,82.9,75.0,30.10,NE,52,4.0,6.0,76,0.00,,,0.00,meteohub,2013-07-18 11:57:00,
2013-07-18 07:58:00,82.9,75.0,30.10,WNW,299,3.0,6.0,76,0.00,,,0.00,meteohub,2013-07-18 11:58:00,
2013-07-18 07:59:00,82.9,75.0,30.10,WNW,299,4.0,6.0,76,0.00,,,0.00,meteohub,2013-07-18 11:59:00,
2013-07-18 08:03:00,83.3,75.0,30.10,NNE,29,4.0,6.0,75,0.00,,,0.00,meteohub,2013-07-18 12:03:00,
2013-07-18 08:04:00,83.3,75.0,30.10,WSW,254,1.0,6.0,75,0.00,,,0.00,meteohub,2013-07-18 12:04:00,
2013-07-18 08:05:00,83.3,75.2,30.10,WNW,299,3.0,6.0,75,0.00,,,0.00,meteohub,2013-07-18 12:05:00,
2013-07-18 08:08:00,83.7,75.0,30.10,NNE,29,3.0,6.0,74,0.00,,,0.00,meteohub,2013-07-18 12:08:00,
2013-07-18 08:09:00,83.7,75.0,30.10,NNE,29,7.0,7.0,74,0.00,,,0.00,meteohub,2013-07-18 12:09:00,
2013-07-18 08:10:00,83.7,75.0,30.10,North,6,1.0,6.0,74,0.00,,,0.00,meteohub,2013-07-18 12:10:00,
2013-07-18 08:13:00,83.7,74.7,30.10,NE,52,4.0,6.0,73,0.00,,,0.00,meteohub,2013-07-18 12:13:00,
2013-07-18 08:14:00,83.7,74.7,30.10,NW,322,3.0,6.0,73,0.00,,,0.00,meteohub,2013-07-18 12:14:00,
2013-07-18 08:15:00,83.7,74.1,30.10,NNE,29,3.0,8.0,72,0.00,,,0.00,meteohub,2013-07-18 12:15:00,
2013-07-18 08:16:00,83.7,74.1,30.10,West,276,6.0,8.0,72,0.00,,,0.00,meteohub,2013-07-18 12:16:00,
2013-07-18 08:17:00,83.7,74.1,30.10,NNE,29,3.0,8.0,72,0.00,,,0.00,meteohub,2013-07-18 12:17:00,
2013-07-18 08:18:00,83.8,74.1,30.10,NNE,29,6.0,8.0,72,0.00,,,0.00,meteohub,2013-07-18 12:18:00,
2013-07-18 08:20:00,83.8,74.3,30.10,NNW,344,6.0,8.0,72,0.00,,,0.00,meteohub,2013-07-18 12:20:00,
2013-07-18 08:21:00,84.0,74.5,30.10,NNE,29,4.0,8.0,72,0.00,,,0.00,meteohub,2013-07-18 12:21:00,
2013-07-18 08:22:00,84.2,74.7,30.10,NNW,344,5.0,8.0,72,0.00,,,0.00,meteohub,2013-07-18 12:22:00,
2013-07-18 08:23:00,84.2,74.3,30.10,NNE,29,3.0,8.0,71,0.00,,,0.00,meteohub,2013-07-18 12:23:00,
2013-07-18 08:25:00,84.4,74.5,30.10,WSW,254,0.0,8.0,71,0.00,,,0.00,meteohub,2013-07-18 12:25:00,
2013-07-18 08:26:00,84.4,74.5,30.10,North,6,0.0,8.0,71,0.00,,,0.00,meteohub,2013-07-18 12:26:00,
2013-07-18 08:27:00,84.4,74.5,30.10,NE,52,2.0,8.0,71,0.00,,,0.00,meteohub,2013-07-18 12:27:00,
2013-07-18 08:28:00,84.6,74.5,30.10,NNE,29,2.0,8.0,71,0.00,,,0.00,meteohub,2013-07-18 12:28:00,
2013-07-18 08:30:00,84.7,74.5,30.10,NNE,29,0.0,6.0,71,0.00,,,0.00,meteohub,2013-07-18 12:30:00,
2013-07-18 08:31:00,84.7,74.5,30.10,NNE,29,0.0,6.0,71,0.00,,,0.00,meteohub,2013-07-18 12:31:00,
2013-07-18 08:32:00,84.9,74.5,30.10,NNE,29,2.0,6.0,71,0.00,,,0.00,meteohub,2013-07-18 12:32:00,
2013-07-18 08:33:00,85.1,74.7,30.10,East,96,0.0,6.0,71,0.00,,,0.00,meteohub,2013-07-18 12:33:00,
2013-07-18 08:36:00,85.1,74.1,30.10,ENE,74,4.0,6.0,70,0.00,,,0.00,meteohub,2013-07-18 12:36:00,
2013-07-18 08:37:00,85.3,74.1,30.10,NW,322,1.0,6.0,70,0.00,,,0.00,meteohub,2013-07-18 12:37:00,
2013-07-18 08:38:00,85.3,74.1,30.10,NW,322,4.0,6.0,70,0.00,,,0.00,meteohub,2013-07-18 12:38:00,
2013-07-18 08:39:00,85.3,74.8,30.10,NNW,344,3.0,6.0,71,0.00,,,0.00,meteohub,2013-07-18 12:39:00,
2013-07-18 08:41:00,85.5,75.0,30.10,WNW,299,1.0,6.0,71,0.00,,,0.00,meteohub,2013-07-18 12:41:00,
2013-07-18 08:42:00,85.5,74.5,30.10,NE,52,0.0,6.0,70,0.00,,,0.00,meteohub,2013-07-18 12:42:00,
2013-07-18 08:43:00,85.5,74.5,30.10,NNE,29,3.0,6.0,70,0.00,,,0.00,meteohub,2013-07-18 12:43:00,
2013-07-18 08:44:00,85.8,74.7,30.10,NNW,344,1.0,6.0,70,0.00,,,0.00,meteohub,2013-07-18 12:44:00,
2013-07-18 08:46:00,85.8,74.8,30.10,North,6,2.0,6.0,70,0.00,,,0.00,meteohub,2013-07-18 12:46:00,
2013-07-18 08:48:00,86.2,74.7,30.10,North,6,1.0,6.0,69,0.00,,,0.00,meteohub,2013-07-18 12:48:00,
2013-07-18 08:49:00,86.2,74.7,30.10,NNE,29,4.0,6.0,69,0.00,,,0.00,meteohub,2013-07-18 12:49:00,
2013-07-18 08:51:00,86.4,74.8,30.10,NNE,29,3.0,5.0,69,0.00,,,0.00,meteohub,2013-07-18 12:51:00,
2013-07-18 08:52:00,86.4,74.8,30.10,NNE,29,3.0,5.0,69,0.00,,,0.00,meteohub,2013-07-18 12:52:00,
2013-07-18 08:53:00,86.4,74.8,30.10,NNE,29,3.0,5.0,69,0.00,,,0.00,meteohub,2013-07-18 12:53:00,
2013-07-18 08:54:00,86.4,74.8,30.10,NNE,29,2.0,5.0,69,0.00,,,0.00,meteohub,2013-07-18 12:54:00,
2013-07-18 08:57:00,86.5,74.5,30.10,NNE,29,3.0,5.0,68,0.00,,,0.00,meteohub,2013-07-18 12:57:00,
2013-07-18 08:58:00,86.5,74.5,30.10,West,276,2.0,5.0,68,0.00,,,0.00,meteohub,2013-07-18 12:58:00,
2013-07-18 08:59:00,86.7,75.2,30.10,NW,322,3.0,5.0,69,0.00,,,0.00,meteohub,2013-07-18 12:59:00,
2013-07-18 09:00:00,86.7,75.2,30.10,NNE,29,3.0,5.0,69,0.00,,,0.00,meteohub,2013-07-18 13:00:00,
2013-07-18 09:02:00,86.9,74.7,30.10,NNW,344,0.0,5.0,68,0.00,,,0.00,meteohub,2013-07-18 13:02:00,
2013-07-18 09:04:00,87.1,74.8,30.10,NNW,344,4.0,5.0,68,0.00,,,0.00,meteohub,2013-07-18 13:04:00,
2013-07-18 09:05:00,87.3,75.0,30.10,WNW,299,4.0,5.0,68,0.00,,,0.00,meteohub,2013-07-18 13:05:00,
2013-07-18 09:08:00,87.4,75.2,30.10,North,6,5.0,5.0,68,0.00,,,0.00,meteohub,2013-07-18 13:08:00,
2013-07-18 09:09:00,87.4,75.0,30.10,NNE,29,4.0,4.0,67,0.00,,,0.00,meteohub,2013-07-18 13:09:00,
2013-07-18 09:10:00,87.6,75.2,30.10,NW,322,1.0,6.0,67,0.00,,,0.00,meteohub,2013-07-18 13:10:00,
2013-07-18 09:14:00,88.2,75.4,30.10,North,6,1.0,6.0,67,0.00,,,0.00,meteohub,2013-07-18 13:14:00,
2013-07-18 09:15:00,88.2,75.4,30.10,NNW,344,3.0,6.0,67,0.00,,,0.00,meteohub,2013-07-18 13:15:00,
2013-07-18 09:17:00,88.2,75.4,30.10,NNE,29,4.0,6.0,67,0.00,,,0.00,meteohub,2013-07-18 13:17:00,
2013-07-18 09:19:00,88.2,75.0,30.10,NNW,344,2.0,6.0,66,0.00,,,0.00,meteohub,2013-07-18 13:19:00,
2013-07-18 09:20:00,88.3,75.0,30.10,NNW,344,0.0,6.0,66,0.00,,,0.00,meteohub,2013-07-18 13:20:00,
2013-07-18 09:22:00,88.7,75.2,30.10,NNW,344,0.0,7.0,66,0.00,,,0.00,meteohub,2013-07-18 13:22:00,
2013-07-18 09:24:00,88.9,75.7,30.10,NNE,29,2.0,7.0,67,0.00,,,0.00,meteohub,2013-07-18 13:24:00,
2013-07-18 09:25:00,88.9,75.7,30.10,NNE,29,3.0,7.0,67,0.00,,,0.00,meteohub,2013-07-18 13:25:00,
2013-07-18 09:27:00,89.1,75.7,30.10,ENE,74,2.0,7.0,67,0.00,,,0.00,meteohub,2013-07-18 13:27:00,
2013-07-18 09:29:00,89.2,75.9,30.10,NNW,344,1.0,7.0,67,0.00,,,0.00,meteohub,2013-07-18 13:29:00,
2013-07-18 09:30:00,89.2,75.9,30.10,WNW,299,4.0,7.0,67,0.00,,,0.00,meteohub,2013-07-18 13:30:00,
2013-07-18 09:32:00,89.4,75.9,30.10,NNW,344,3.0,7.0,66,0.00,,,0.00,meteohub,2013-07-18 13:32:00,
2013-07-18 09:35:00,89.8,76.3,30.10,North,6,2.0,7.0,66,0.00,,,0.00,meteohub,2013-07-18 13:35:00,
2013-07-18 09:36:00,89.8,76.3,30.10,NE,52,2.0,4.0,66,0.00,,,0.00,meteohub,2013-07-18 13:36:00,
2013-07-18 09:37:00,90.0,76.3,30.10,SSW,209,0.0,4.0,66,0.00,,,0.00,meteohub,2013-07-18 13:37:00,
2013-07-18 09:39:00,90.1,76.5,30.10,NE,52,6.0,6.0,66,0.00,,,0.00,meteohub,2013-07-18 13:39:00,
2013-07-18 09:40:00,90.1,76.5,30.10,NNW,344,3.0,6.0,66,0.00,,,0.00,meteohub,2013-07-18 13:40:00,
2013-07-18 09:41:00,90.1,76.5,30.10,NNE,29,0.0,6.0,66,0.00,,,0.00,meteohub,2013-07-18 13:41:00,
2013-07-18 09:43:00,90.1,76.5,30.10,North,6,2.0,6.0,66,0.00,,,0.00,meteohub,2013-07-18 13:43:00,
2013-07-18 09:44:00,90.3,76.6,30.10,NNW,344,4.0,6.0,66,0.00,,,0.00,meteohub,2013-07-18 13:44:00,
2013-07-18 09:45:00,90.3,76.6,30.10,NNE,29,3.0,6.0,66,0.00,,,0.00,meteohub,2013-07-18 13:45:00,
2013-07-18 09:47:00,90.5,76.3,30.10,North,6,4.0,6.0,65,0.00,,,0.00,meteohub,2013-07-18 13:47:00,
2013-07-18 09:48:00,90.5,76.3,30.10,NNE,29,2.0,6.0,65,0.00,,,0.00,meteohub,2013-07-18 13:48:00,
2013-07-18 09:50:00,90.5,76.5,30.10,NW,322,0.0,6.0,65,0.00,,,0.00,meteohub,2013-07-18 13:50:00,
2013-07-18 09:51:00,90.5,76.5,30.10,NW,322,0.0,6.0,65,0.00,,,0.00,meteohub,2013-07-18 13:51:00,
2013-07-18 09:52:00,90.9,76.1,30.10,NE,52,0.0,6.0,64,0.00,,,0.00,meteohub,2013-07-18 13:52:00,
2013-07-18 09:53:00,91.0,76.3,30.10,NNE,29,1.0,6.0,64,0.00,,,0.00,meteohub,2013-07-18 13:53:00,
2013-07-18 09:56:00,91.2,76.5,30.10,NNW,344,3.0,5.0,64,0.00,,,0.00,meteohub,2013-07-18 13:56:00,
2013-07-18 09:57:00,91.2,75.9,30.10,ENE,74,4.0,5.0,63,0.00,,,0.00,meteohub,2013-07-18 13:57:00,
2013-07-18 09:58:00,91.4,76.1,30.10,NW,322,2.0,5.0,63,0.00,,,0.00,meteohub,2013-07-18 13:58:00,
2013-07-18 10:01:00,91.6,76.8,30.10,North,6,2.0,5.0,64,0.00,,,0.00,meteohub,2013-07-18 14:01:00,
2013-07-18 10:02:00,91.8,76.3,30.10,ENE,74,4.0,5.0,63,0.00,,,0.00,meteohub,2013-07-18 14:02:00,
2013-07-18 10:04:00,91.8,76.3,30.10,NE,52,3.0,5.0,63,0.00,,,0.00,meteohub,2013-07-18 14:04:00,
2013-07-18 10:06:00,91.8,75.9,30.10,NNE,29,4.0,5.0,62,0.00,,,0.00,meteohub,2013-07-18 14:06:00,
2013-07-18 10:07:00,91.8,75.9,30.10,NNW,344,2.0,5.0,62,0.00,,,0.00,meteohub,2013-07-18 14:07:00,
2013-07-18 10:09:00,91.8,76.1,30.10,WNW,299,0.0,5.0,62,0.00,,,0.00,meteohub,2013-07-18 14:09:00,
2013-07-18 10:11:00,91.9,76.1,30.10,NNE,29,4.0,5.0,62,0.00,,,0.00,meteohub,2013-07-18 14:11:00,
2013-07-18 10:12:00,92.1,76.3,30.10,ENE,74,3.0,5.0,62,0.00,,,0.00,meteohub,2013-07-18 14:12:00,
2013-07-18 10:13:00,92.1,75.7,30.10,ENE,74,3.0,5.0,61,0.00,,,0.00,meteohub,2013-07-18 14:13:00,
2013-07-18 10:14:00,92.1,76.3,30.10,NNW,344,2.0,5.0,62,0.00,,,0.00,meteohub,2013-07-18 14:14:00,
2013-07-18 10:17:00,92.3,76.3,30.10,WNW,299,1.0,5.0,62,0.00,,,0.00,meteohub,2013-07-18 14:17:00,
2013-07-18 10:18:00,92.5,76.1,30.10,NNE,29,3.0,5.0,61,0.00,,,0.00,meteohub,2013-07-18 14:18:00,
2013-07-18 10:20:00,92.7,76.3,30.10,SSW,209,0.0,5.0,61,0.00,,,0.00,meteohub,2013-07-18 14:20:00,
2013-07-18 10:22:00,92.8,76.5,30.10,SSW,209,1.0,6.0,61,0.00,,,0.00,meteohub,2013-07-18 14:22:00,
2013-07-18 10:23:00,92.8,76.5,30.10,NE,52,3.0,6.0,61,0.00,,,0.00,meteohub,2013-07-18 14:23:00,
2013-07-18 10:25:00,93.0,76.6,30.10,WNW,299,4.0,6.0,61,0.00,,,0.00,meteohub,2013-07-18 14:25:00,
2013-07-18 10:27:00,92.8,76.6,30.10,WSW,254,1.0,6.0,61,0.00,,,0.00,meteohub,2013-07-18 14:27:00,
2013-07-18 10:28:00,93.2,76.6,30.10,NNE,29,2.0,6.0,61,0.00,,,0.00,meteohub,2013-07-18 14:28:00,
2013-07-18 10:29:00,93.4,76.6,30.10,NNW,344,2.0,6.0,61,0.00,,,0.00,meteohub,2013-07-18 14:29:00,
2013-07-18 10:30:00,93.4,76.3,30.10,NNE,29,3.0,4.0,60,0.00,,,0.00,meteohub,2013-07-18 14:30:00,
2013-07-18 10:32:00,93.6,75.9,30.10,NNE,29,3.0,4.0,59,0.00,,,0.00,meteohub,2013-07-18 14:32:00,
2013-07-18 10:33:00,93.6,75.9,30.10,NNW,344,4.0,4.0,59,0.00,,,0.00,meteohub,2013-07-18 14:33:00,
2013-07-18 10:34:00,93.6,75.9,30.10,NNW,344,4.0,4.0,59,0.00,,,0.00,meteohub,2013-07-18 14:34:00,
2013-07-18 10:35:00,93.6,76.1,30.10,NNE,29,3.0,4.0,59,0.00,,,0.00,meteohub,2013-07-18 14:35:00,
2013-07-18 10:38:00,93.7,76.3,30.10,NNE,29,5.0,5.0,59,0.00,,,0.00,meteohub,2013-07-18 14:38:00,
2013-07-18 10:39:00,93.7,76.3,30.10,NNE,29,4.0,4.0,59,0.00,,,0.00,meteohub,2013-07-18 14:39:00,
2013-07-18 10:40:00,93.9,76.5,30.10,NNE,29,4.0,6.0,59,0.00,,,0.00,meteohub,2013-07-18 14:40:00,
2013-07-18 10:41:00,93.7,75.9,30.10,NNE,29,3.0,6.0,58,0.00,,,0.00,meteohub,2013-07-18 14:41:00,
2013-07-18 10:43:00,93.9,76.5,30.10,NNW,344,1.0,6.0,59,0.00,,,0.00,meteohub,2013-07-18 14:43:00,
2013-07-18 10:44:00,93.9,76.5,30.10,West,276,0.0,6.0,59,0.00,,,0.00,meteohub,2013-07-18 14:44:00,
2013-07-18 10:45:00,94.3,76.6,30.10,North,6,0.0,6.0,59,0.00,,,0.00,meteohub,2013-07-18 14:45:00,
2013-07-18 10:46:00,94.5,76.6,30.10,NNE,29,2.0,6.0,59,0.00,,,0.00,meteohub,2013-07-18 14:46:00,
2013-07-18 10:49:00,94.3,76.6,30.10,North,6,4.0,6.0,59,0.00,,,0.00,meteohub,2013-07-18 14:49:00,
2013-07-18 10:50:00,94.3,76.3,30.10,NE,52,6.0,6.0,58,0.00,,,0.00,meteohub,2013-07-18 14:50:00,
2013-07-18 10:51:00,94.3,76.3,30.10,WNW,299,6.0,6.0,58,0.00,,,0.00,meteohub,2013-07-18 14:51:00,
2013-07-18 10:53:00,94.1,75.7,30.10,ENE,74,6.0,6.0,57,0.00,,,0.00,meteohub,2013-07-18 14:53:00,
2013-07-18 10:54:00,94.3,76.5,30.10,ENE,74,2.0,6.0,58,0.00,,,0.00,meteohub,2013-07-18 14:54:00,
2013-07-18 10:55:00,94.5,76.5,30.10,NNW,344,0.0,6.0,58,0.00,,,0.00,meteohub,2013-07-18 14:55:00,
2013-07-18 10:57:00,94.8,76.1,30.10,NNW,344,0.0,6.0,57,0.00,,,0.00,meteohub,2013-07-18 14:57:00,
2013-07-18 10:58:00,94.8,75.6,30.10,NNW,344,0.0,6.0,56,0.00,,,0.00,meteohub,2013-07-18 14:58:00,
2013-07-18 10:59:00,95.0,75.7,30.10,NNE,29,0.0,6.0,56,0.00,,,0.00,meteohub,2013-07-18 14:59:00,
2013-07-18 11:00:00,95.2,75.7,30.10,SE,142,0.0,6.0,56,0.00,,,0.00,meteohub,2013-07-18 15:00:00,
2013-07-18 11:01:00,95.2,75.7,30.10,NW,322,2.0,6.0,56,0.00,,,0.00,meteohub,2013-07-18 15:01:00,
2013-07-18 11:02:00,95.2,76.3,30.10,SE,142,2.0,6.0,57,0.00,,,0.00,meteohub,2013-07-18 15:02:00,
2013-07-18 11:03:00,95.4,76.3,30.10,South,186,0.0,6.0,57,0.00,,,0.00,meteohub,2013-07-18 15:03:00,
2013-07-18 11:05:00,95.2,75.7,30.10,West,276,0.0,6.0,56,0.00,,,0.00,meteohub,2013-07-18 15:05:00,
2013-07-18 11:06:00,95.4,75.7,30.10,SSW,209,0.0,6.0,56,0.00,,,0.00,meteohub,2013-07-18 15:06:00,
2013-07-18 11:07:00,95.4,75.7,30.10,SSE,164,0.0,6.0,56,0.00,,,0.00,meteohub,2013-07-18 15:07:00,
2013-07-18 11:09:00,95.4,75.7,30.10,ENE,74,1.0,6.0,56,0.00,,,0.00,meteohub,2013-07-18 15:09:00,
2013-07-18 11:10:00,95.7,76.3,30.10,NE,52,4.0,4.0,57,0.00,,,0.00,meteohub,2013-07-18 15:10:00,
2013-07-18 11:11:00,95.7,76.3,30.10,NNE,29,4.0,4.0,57,0.00,,,0.00,meteohub,2013-07-18 15:11:00,
2013-07-18 11:12:00,95.5,75.2,30.10,North,6,2.0,4.0,55,0.00,,,0.00,meteohub,2013-07-18 15:12:00,
2013-07-18 11:14:00,95.7,75.9,30.10,NNE,29,3.0,4.0,56,0.00,,,0.00,meteohub,2013-07-18 15:14:00,
2013-07-18 11:15:00,95.5,75.4,30.10,North,6,1.0,6.0,55,0.00,,,0.00,meteohub,2013-07-18 15:15:00,
2013-07-18 11:16:00,95.5,75.4,30.10,North,6,1.0,6.0,55,0.00,,,0.00,meteohub,2013-07-18 15:16:00,
2013-07-18 11:18:00,95.7,76.1,30.10,North,6,0.0,6.0,56,0.00,,,0.00,meteohub,2013-07-18 15:18:00,
2013-07-18 11:20:00,95.9,76.1,30.10,NNE,29,3.0,6.0,56,0.00,,,0.00,meteohub,2013-07-18 15:20:00,
2013-07-18 11:21:00,96.1,76.3,30.10,SSE,164,0.0,6.0,56,0.00,,,0.00,meteohub,2013-07-18 15:21:00,
2013-07-18 11:22:00,96.3,75.7,30.10,SE,142,2.0,6.0,55,0.00,,,0.00,meteohub,2013-07-18 15:22:00,
2013-07-18 11:23:00,96.3,75.2,30.10,East,96,0.0,6.0,54,0.00,,,0.00,meteohub,2013-07-18 15:23:00,
2013-07-18 11:25:00,96.1,75.7,30.10,SSE,164,3.0,6.0,55,0.00,,,0.00,meteohub,2013-07-18 15:25:00,
2013-07-18 11:26:00,95.9,75.7,30.10,SE,142,4.0,6.0,55,0.00,,,0.00,meteohub,2013-07-18 15:26:00,
2013-07-18 11:27:00,95.5,75.2,30.10,WNW,299,0.0,6.0,54,0.00,,,0.00,meteohub,2013-07-18 15:27:00,
2013-07-18 11:28:00,95.9,75.2,30.10,ENE,74,0.0,6.0,54,0.00,,,0.00,meteohub,2013-07-18 15:28:00,
2013-07-18 11:30:00,96.1,75.2,30.10,South,186,2.0,4.0,54,0.00,,,0.00,meteohub,2013-07-18 15:30:00,
2013-07-18 11:31:00,95.7,75.7,30.10,SSE,164,2.0,4.0,55,0.00,,,0.00,meteohub,2013-07-18 15:31:00,
2013-07-18 11:32:00,95.7,75.7,30.10,South,186,3.0,4.0,55,0.00,,,0.00,meteohub,2013-07-18 15:32:00,
2013-07-18 11:33:00,95.7,75.9,30.10,SSW,209,0.0,4.0,55,0.00,,,0.00,meteohub,2013-07-18 15:33:00,
2013-07-18 11:35:00,96.3,76.1,30.10,NNW,344,1.0,4.0,55,0.00,,,0.00,meteohub,2013-07-18 15:35:00,
2013-07-18 11:36:00,96.4,76.6,30.10,NNW,344,4.0,4.0,56,0.00,,,0.00,meteohub,2013-07-18 15:36:00,
2013-07-18 11:37:00,96.3,76.6,30.10,WNW,299,4.0,4.0,56,0.00,,,0.00,meteohub,2013-07-18 15:37:00,
2013-07-18 11:38:00,96.3,76.6,30.10,West,276,3.0,4.0,56,0.00,,,0.00,meteohub,2013-07-18 15:38:00,
2013-07-18 11:40:00,95.4,75.4,30.10,WNW,299,3.0,4.0,54,0.00,,,0.00,meteohub,2013-07-18 15:40:00,
2013-07-18 11:41:00,95.2,75.4,30.10,NE,52,6.0,6.0,54,0.00,,,0.00,meteohub,2013-07-18 15:41:00,
2013-07-18 11:43:00,94.8,75.2,30.10,NNE,29,3.0,4.0,54,0.00,,,0.00,meteohub,2013-07-18 15:43:00,
2013-07-18 11:44:00,95.0,74.7,30.10,NNW,344,0.0,4.0,53,0.00,,,0.00,meteohub,2013-07-18 15:44:00,
2013-07-18 11:45:00,95.2,75.2,30.10,NNE,29,3.0,6.0,54,0.00,,,0.00,meteohub,2013-07-18 15:45:00,
2013-07-18 11:46:00,95.2,75.2,30.10,NNE,29,3.0,6.0,54,0.00,,,0.00,meteohub,2013-07-18 15:46:00,
2013-07-18 11:47:00,95.4,75.9,30.10,NNE,29,3.0,6.0,55,0.00,,,0.00,meteohub,2013-07-18 15:47:00,
2013-07-18 11:48:00,95.5,75.4,30.10,NNW,344,2.0,6.0,54,0.00,,,0.00,meteohub,2013-07-18 15:48:00,
2013-07-18 11:49:00,95.7,75.4,30.10,NE,52,4.0,6.0,54,0.00,,,0.00,meteohub,2013-07-18 15:49:00,
2013-07-18 11:51:00,96.1,75.6,30.10,SSE,164,0.0,6.0,54,0.00,,,0.00,meteohub,2013-07-18 15:51:00,
2013-07-18 11:52:00,96.3,75.6,30.10,NNW,344,0.0,6.0,54,0.00,,,0.00,meteohub,2013-07-18 15:52:00,
2013-07-18 11:54:00,96.1,75.6,30.10,NW,322,1.0,6.0,54,0.00,,,0.00,meteohub,2013-07-18 15:54:00,
2013-07-18 11:56:00,96.6,76.5,30.10,NNE,29,5.0,6.0,55,0.00,,,0.00,meteohub,2013-07-18 15:56:00,
2013-07-18 11:57:00,96.6,76.1,30.10,NE,52,3.0,6.0,54,0.00,,,0.00,meteohub,2013-07-18 15:57:00,
2013-07-18 11:59:00,96.8,75.0,30.10,East,96,3.0,6.0,52,0.00,,,0.00,meteohub,2013-07-18 15:59:00,
2013-07-18 12:01:00,97.0,75.6,30.10,WSW,254,0.0,6.0,53,0.00,,,0.00,meteohub,2013-07-18 16:01:00,
2013-07-18 12:02:00,97.0,75.6,30.10,SSE,164,0.0,6.0,53,0.00,,,0.00,meteohub,2013-07-18 16:02:00,
2013-07-18 12:05:00,97.2,75.6,30.10,ENE,74,3.0,6.0,53,0.00,,,0.00,meteohub,2013-07-18 16:05:00,
2013-07-18 12:07:00,97.3,75.6,30.10,WSW,254,1.0,6.0,53,0.00,,,0.00,meteohub,2013-07-18 16:07:00,
2013-07-18 12:10:00,97.7,75.7,30.10,NNE,29,0.0,6.0,53,0.00,,,0.00,meteohub,2013-07-18 16:10:00,
2013-07-18 12:11:00,97.7,75.7,30.10,NNE,29,2.0,6.0,53,0.00,,,0.00,meteohub,2013-07-18 16:11:00,
2013-07-18 12:13:00,97.5,75.7,30.10,West,276,4.0,6.0,53,0.00,,,0.00,meteohub,2013-07-18 16:13:00,
2013-07-18 12:15:00,97.5,75.9,30.10,WSW,254,0.0,5.0,53,0.00,,,0.00,meteohub,2013-07-18 16:15:00,
2013-07-18 12:16:00,97.5,75.2,30.10,NE,52,2.0,5.0,52,0.00,,,0.00,meteohub,2013-07-18 16:16:00,
2013-07-18 12:18:00,96.8,75.0,30.10,SSE,164,0.0,5.0,52,0.00,,,0.00,meteohub,2013-07-18 16:18:00,
2013-07-18 12:20:00,96.8,75.0,30.10,ENE,74,3.0,5.0,52,0.00,,,0.00,meteohub,2013-07-18 16:20:00,
2013-07-18 12:22:00,96.3,75.0,30.10,NNE,29,2.0,5.0,52,0.00,,,0.00,meteohub,2013-07-18 16:22:00,
2013-07-18 12:23:00,96.1,74.8,30.07,ENE,74,0.0,5.0,52,0.00,,,0.00,meteohub,2013-07-18 16:23:00,
2013-07-18 12:24:00,96.1,74.8,30.07,SSW,209,1.0,5.0,52,0.00,,,0.00,meteohub,2013-07-18 16:24:00,
2013-07-18 12:26:00,96.4,75.0,30.07,WSW,254,0.0,5.0,52,0.00,,,0.00,meteohub,2013-07-18 16:26:00,
2013-07-18 12:27:00,96.4,75.0,30.07,NNE,29,3.0,5.0,52,0.00,,,0.00,meteohub,2013-07-18 16:27:00,
2013-07-18 12:28:00,96.6,74.8,30.07,NNE,29,1.0,5.0,52,0.00,,,0.00,meteohub,2013-07-18 16:28:00,
2013-07-18 12:29:00,96.8,74.8,30.07,NNW,344,1.0,5.0,52,0.00,,,0.00,meteohub,2013-07-18 16:29:00,
2013-07-18 12:30:00,97.0,75.0,30.07,NNE,29,2.0,5.0,52,0.00,,,0.00,meteohub,2013-07-18 16:30:00,
2013-07-18 12:32:00,97.2,75.0,30.07,ENE,74,2.0,5.0,52,0.00,,,0.00,meteohub,2013-07-18 16:32:00,
2013-07-18 12:34:00,97.3,75.0,30.07,WSW,254,0.0,5.0,52,0.00,,,0.00,meteohub,2013-07-18 16:34:00,
2013-07-18 12:35:00,97.2,75.0,30.07,SSW,209,0.0,5.0,52,0.00,,,0.00,meteohub,2013-07-18 16:35:00,
2013-07-18 12:37:00,96.4,74.1,30.07,SSW,209,2.0,5.0,51,0.00,,,0.00,meteohub,2013-07-18 16:37:00,
2013-07-18 12:39:00,95.9,74.3,30.07,SSW,209,4.0,5.0,51,0.00,,,0.00,meteohub,2013-07-18 16:39:00,
2013-07-18 12:40:00,95.9,75.0,30.07,South,186,5.0,5.0,52,0.00,,,0.00,meteohub,2013-07-18 16:40:00,
2013-07-18 12:41:00,95.4,75.0,30.07,SSW,209,5.0,6.0,52,0.00,,,0.00,meteohub,2013-07-18 16:41:00,
2013-07-18 12:42:00,95.4,75.0,30.07,SSW,209,6.0,6.0,52,0.00,,,0.00,meteohub,2013-07-18 16:42:00,
2013-07-18 12:44:00,95.0,74.8,30.07,SSW,209,5.0,6.0,52,0.00,,,0.00,meteohub,2013-07-18 16:44:00,
2013-07-18 12:45:00,94.8,74.8,30.07,SW,232,0.0,6.0,52,0.00,,,0.00,meteohub,2013-07-18 16:45:00,
2013-07-18 12:46:00,94.8,73.9,30.07,WSW,254,4.0,6.0,51,0.00,,,0.00,meteohub,2013-07-18 16:46:00,
2013-07-18 12:47:00,94.8,74.7,30.07,SW,232,2.0,6.0,52,0.00,,,0.00,meteohub,2013-07-18 16:47:00,
2013-07-18 12:48:00,94.5,74.7,30.07,SSW,209,4.0,6.0,52,0.00,,,0.00,meteohub,2013-07-18 16:48:00,
2013-07-18 12:49:00,94.1,74.5,30.07,WSW,254,4.0,6.0,52,0.00,,,0.00,meteohub,2013-07-18 16:49:00,
2013-07-18 12:50:00,94.1,74.5,30.07,South,186,3.0,6.0,52,0.00,,,0.00,meteohub,2013-07-18 16:50:00,
2013-07-18 12:51:00,93.9,74.5,30.07,SSW,209,4.0,6.0,52,0.00,,,0.00,meteohub,2013-07-18 16:51:00,
2013-07-18 12:52:00,93.9,74.5,30.07,SSW,209,4.0,6.0,52,0.00,,,0.00,meteohub,2013-07-18 16:52:00,
2013-07-18 12:53:00,93.7,74.3,30.07,SSW,209,4.0,6.0,52,0.00,,,0.00,meteohub,2013-07-18 16:53:00,
2013-07-18 12:54:00,93.6,74.1,30.07,SSW,209,4.0,6.0,52,0.00,,,0.00,meteohub,2013-07-18 16:54:00,
2013-07-18 12:55:00,93.4,74.1,30.07,SSW,209,4.0,6.0,52,0.00,,,0.00,meteohub,2013-07-18 16:55:00,
2013-07-18 12:56:00,93.6,74.3,30.07,SSW,209,3.0,6.0,52,0.00,,,0.00,meteohub,2013-07-18 16:56:00,
2013-07-18 12:57:00,93.7,74.3,30.07,South,186,1.0,6.0,52,0.00,,,0.00,meteohub,2013-07-18 16:57:00,
2013-07-18 12:59:00,93.6,74.3,30.07,SSE,164,4.0,6.0,52,0.00,,,0.00,meteohub,2013-07-18 16:59:00,
2013-07-18 13:00:00,93.6,73.8,30.07,SSW,209,4.0,6.0,51,0.00,,,0.00,meteohub,2013-07-18 17:00:00,
2013-07-18 13:01:00,93.4,73.8,30.07,SSE,164,3.0,5.0,51,0.00,,,0.00,meteohub,2013-07-18 17:01:00,
2013-07-18 13:02:00,93.4,73.8,30.07,SE,142,4.0,5.0,51,0.00,,,0.00,meteohub,2013-07-18 17:02:00,
2013-07-18 13:05:00,93.7,73.6,30.07,SSE,164,0.0,5.0,51,0.00,,,0.00,meteohub,2013-07-18 17:05:00,
2013-07-18 13:06:00,93.9,73.6,30.07,SW,232,5.0,6.0,51,0.00,,,0.00,meteohub,2013-07-18 17:06:00,
2013-07-18 13:08:00,94.1,74.1,30.07,SSW,209,3.0,6.0,52,0.00,,,0.00,meteohub,2013-07-18 17:08:00,
2013-07-18 13:10:00,94.3,75.2,30.07,WSW,254,3.0,6.0,54,0.00,,,0.00,meteohub,2013-07-18 17:10:00,
2013-07-18 13:12:00,95.0,75.9,30.07,ENE,74,5.0,6.0,55,0.00,,,0.00,meteohub,2013-07-18 17:12:00,
2013-07-18 13:13:00,95.0,75.4,30.07,NNW,344,5.0,6.0,54,0.00,,,0.00,meteohub,2013-07-18 17:13:00,
2013-07-18 13:14:00,95.0,74.8,30.07,West,276,3.0,6.0,53,0.00,,,0.00,meteohub,2013-07-18 17:14:00,
2013-07-18 13:15:00,94.6,74.8,30.07,West,276,4.0,6.0,53,0.00,,,0.00,meteohub,2013-07-18 17:15:00,
2013-07-18 13:17:00,94.6,74.5,30.07,SSW,209,1.0,6.0,52,0.00,,,0.00,meteohub,2013-07-18 17:17:00,
2013-07-18 13:18:00,94.6,73.9,30.07,WSW,254,3.0,6.0,51,0.00,,,0.00,meteohub,2013-07-18 17:18:00,
2013-07-18 13:19:00,94.6,73.9,30.07,WSW,254,3.0,6.0,51,0.00,,,0.00,meteohub,2013-07-18 17:19:00,
2013-07-18 13:21:00,94.3,73.2,30.07,West,276,3.0,6.0,50,0.00,,,0.00,meteohub,2013-07-18 17:21:00,
2013-07-18 13:23:00,94.5,73.2,30.07,NE,52,2.0,6.0,50,0.00,,,0.00,meteohub,2013-07-18 17:23:00,
2013-07-18 13:25:00,94.6,73.2,30.07,NNW,344,2.0,6.0,50,0.00,,,0.00,meteohub,2013-07-18 17:25:00,
2013-07-18 13:26:00,94.6,73.0,30.07,NNE,29,0.0,6.0,50,0.00,,,0.00,meteohub,2013-07-18 17:26:00,
2013-07-18 13:27:00,94.6,73.0,30.07,NNE,29,2.0,6.0,50,0.00,,,0.00,meteohub,2013-07-18 17:27:00,
2013-07-18 13:28:00,94.8,73.0,30.07,ENE,74,4.0,6.0,50,0.00,,,0.00,meteohub,2013-07-18 17:28:00,
2013-07-18 13:30:00,94.6,73.0,30.07,WSW,254,6.0,6.0,50,0.00,,,0.00,meteohub,2013-07-18 17:30:00,
2013-07-18 13:32:00,94.5,74.1,30.07,WSW,254,2.0,6.0,52,0.00,,,0.00,meteohub,2013-07-18 17:32:00,
2013-07-18 13:33:00,94.5,74.1,30.07,South,186,0.0,6.0,52,0.00,,,0.00,meteohub,2013-07-18 17:33:00,
2013-07-18 13:34:00,94.5,74.1,30.07,WSW,254,2.0,6.0,52,0.00,,,0.00,meteohub,2013-07-18 17:34:00,
2013-07-18 13:35:00,94.6,73.6,30.07,NNW,344,4.0,6.0,51,0.00,,,0.00,meteohub,2013-07-18 17:35:00,
2013-07-18 13:37:00,95.2,72.9,30.07,NNW,344,0.0,6.0,50,0.00,,,0.00,meteohub,2013-07-18 17:37:00,
2013-07-18 13:38:00,95.2,73.0,30.07,SW,232,1.0,6.0,50,0.00,,,0.00,meteohub,2013-07-18 17:38:00,
2013-07-18 13:39:00,95.2,73.0,30.07,SSW,209,3.0,6.0,50,0.00,,,0.00,meteohub,2013-07-18 17:39:00,
2013-07-18 13:40:00,95.4,73.9,30.07,WSW,254,4.0,6.0,51,0.00,,,0.00,meteohub,2013-07-18 17:40:00,
2013-07-18 13:41:00,95.7,74.5,30.07,WSW,254,0.0,6.0,52,0.00,,,0.00,meteohub,2013-07-18 17:41:00,
2013-07-18 13:42:00,95.9,73.9,30.07,ESE,119,0.0,6.0,51,0.00,,,0.00,meteohub,2013-07-18 17:42:00,
2013-07-18 13:44:00,96.6,73.6,30.07,WNW,299,2.0,6.0,50,0.00,,,0.00,meteohub,2013-07-18 17:44:00,
2013-07-18 13:45:00,96.8,72.5,30.07,WNW,299,3.0,4.0,48,0.00,,,0.00,meteohub,2013-07-18 17:45:00,
2013-07-18 13:46:00,97.0,72.5,30.07,WNW,299,5.0,5.0,48,0.00,,,0.00,meteohub,2013-07-18 17:46:00,
2013-07-18 13:47:00,97.3,72.7,30.07,NNW,344,3.0,4.0,48,0.00,,,0.00,meteohub,2013-07-18 17:47:00,
2013-07-18 13:49:00,97.7,71.6,30.07,WNW,299,2.0,4.0,46,0.00,,,0.00,meteohub,2013-07-18 17:49:00,
2013-07-18 13:50:00,97.9,71.6,30.07,WNW,299,2.0,4.0,46,0.00,,,0.00,meteohub,2013-07-18 17:50:00,
2013-07-18 13:51:00,98.1,71.6,30.07,WNW,299,3.0,6.0,46,0.00,,,0.00,meteohub,2013-07-18 17:51:00,
2013-07-18 13:53:00,98.6,71.8,30.07,NNW,344,4.0,6.0,46,0.00,,,0.00,meteohub,2013-07-18 17:53:00,
2013-07-18 13:55:00,98.6,72.5,30.07,NNE,29,3.0,6.0,47,0.00,,,0.00,meteohub,2013-07-18 17:55:00,
2013-07-18 13:56:00,98.8,72.5,30.07,West,276,1.0,6.0,47,0.00,,,0.00,meteohub,2013-07-18 17:56:00,
2013-07-18 13:58:00,99.0,72.7,30.07,WNW,299,0.0,6.0,47,0.00,,,0.00,meteohub,2013-07-18 17:58:00,
2013-07-18 14:00:00,99.3,73.4,30.07,SSW,209,0.0,6.0,48,0.00,,,0.00,meteohub,2013-07-18 18:00:00,
2013-07-18 14:01:00,99.3,72.7,30.07,WNW,299,3.0,6.0,47,0.00,,,0.00,meteohub,2013-07-18 18:01:00,
2013-07-18 14:02:00,99.3,73.4,30.07,NNW,344,4.0,6.0,48,0.00,,,0.00,meteohub,2013-07-18 18:02:00,
2013-07-18 14:05:00,99.7,72.1,30.07,East,96,1.0,4.0,46,0.00,,,0.00,meteohub,2013-07-18 18:05:00,
2013-07-18 14:06:00,99.7,72.1,30.07,WSW,254,3.0,4.0,46,0.00,,,0.00,meteohub,2013-07-18 18:06:00,
2013-07-18 14:07:00,99.3,72.5,30.04,WSW,254,4.0,4.0,47,0.00,,,0.00,meteohub,2013-07-18 18:07:00,
2013-07-18 14:11:00,98.8,73.6,30.04,WNW,299,2.0,6.0,48,0.00,,,0.00,meteohub,2013-07-18 18:11:00,
2013-07-18 14:12:00,98.4,73.6,30.04,WSW,254,3.0,6.0,48,0.00,,,0.00,meteohub,2013-07-18 18:12:00,
2013-07-18 14:16:00,97.7,72.7,30.04,SSW,209,8.0,13.0,46,0.00,,,0.00,meteohub,2013-07-18 18:16:00,
2013-07-18 14:17:00,97.5,73.2,30.04,South,186,6.0,13.0,47,0.00,,,0.00,meteohub,2013-07-18 18:17:00,
2013-07-18 14:18:00,97.3,72.7,30.04,SSW,209,6.0,13.0,46,0.00,,,0.00,meteohub,2013-07-18 18:18:00,
2013-07-18 14:21:00,97.3,72.0,30.04,WSW,254,6.0,13.0,45,0.00,,,0.00,meteohub,2013-07-18 18:21:00,
2013-07-18 14:22:00,97.3,72.0,30.04,SW,232,8.0,13.0,45,0.00,,,0.00,meteohub,2013-07-18 18:22:00,
2013-07-18 14:23:00,97.3,73.2,30.04,SSW,209,9.0,13.0,47,0.00,,,0.00,meteohub,2013-07-18 18:23:00,
2013-07-18 14:26:00,97.3,72.7,30.04,WSW,254,5.0,13.0,46,0.00,,,0.00,meteohub,2013-07-18 18:26:00,
2013-07-18 14:27:00,97.2,72.7,30.04,SSW,209,6.0,13.0,46,0.00,,,0.00,meteohub,2013-07-18 18:27:00,
2013-07-18 14:28:00,97.2,72.1,30.04,SSW,209,6.0,13.0,45,0.00,,,0.00,meteohub,2013-07-18 18:28:00,
2013-07-18 14:29:00,97.3,72.3,30.04,WSW,254,3.0,13.0,45,0.00,,,0.00,meteohub,2013-07-18 18:29:00,
2013-07-18 14:32:00,98.8,72.5,30.04,NNW,344,1.0,9.0,45,0.00,,,0.00,meteohub,2013-07-18 18:32:00,
2013-07-18 14:33:00,99.1,72.5,30.04,SSW,209,3.0,9.0,45,0.00,,,0.00,meteohub,2013-07-18 18:33:00,
2013-07-18 14:35:00,98.2,73.8,30.04,SW,232,10.0,10.0,47,0.00,,,0.00,meteohub,2013-07-18 18:35:00,
2013-07-18 14:37:00,98.1,72.7,30.04,WSW,254,4.0,9.0,45,0.00,,,0.00,meteohub,2013-07-18 18:37:00,
2013-07-18 14:38:00,98.1,73.2,30.04,West,276,6.0,9.0,46,0.00,,,0.00,meteohub,2013-07-18 18:38:00,
2013-07-18 14:39:00,98.4,73.2,30.04,WNW,299,3.0,9.0,46,0.00,,,0.00,meteohub,2013-07-18 18:39:00,
2013-07-18 14:41:00,99.0,73.2,30.04,SSE,164,0.0,10.0,46,0.00,,,0.00,meteohub,2013-07-18 18:41:00,
2013-07-18 14:42:00,99.0,73.2,30.04,West,276,3.0,10.0,46,0.00,,,0.00,meteohub,2013-07-18 18:42:00,
2013-07-18 14:43:00,99.0,73.2,30.04,WSW,254,3.0,10.0,46,0.00,,,0.00,meteohub,2013-07-18 18:43:00,
2013-07-18 14:44:00,99.1,72.7,30.04,WNW,299,2.0,10.0,45,0.00,,,0.00,meteohub,2013-07-18 18:44:00,
2013-07-18 14:46:00,99.3,73.2,30.04,ESE,119,2.0,10.0,46,0.00,,,0.00,meteohub,2013-07-18 18:46:00,
2013-07-18 14:48:00,99.1,73.2,30.04,WNW,299,4.0,10.0,46,0.00,,,0.00,meteohub,2013-07-18 18:48:00,
2013-07-18 14:49:00,99.3,73.2,30.04,SSW,209,0.0,10.0,46,0.00,,,0.00,meteohub,2013-07-18 18:49:00,
2013-07-18 14:53:00,99.3,72.7,30.04,SSW,209,5.0,6.0,45,0.00,,,0.00,meteohub,2013-07-18 18:53:00,
2013-07-18 14:54:00,99.3,72.7,30.04,WSW,254,4.0,6.0,45,0.00,,,0.00,meteohub,2013-07-18 18:54:00,
2013-07-18 14:58:00,100.2,72.9,30.04,ESE,119,1.0,8.0,45,0.00,,,0.00,meteohub,2013-07-18 18:58:00,
2013-07-18 14:59:00,100.2,72.9,30.04,NNW,344,3.0,8.0,45,0.00,,,0.00,meteohub,2013-07-18 18:59:00,
2013-07-18 15:00:00,100.0,72.3,30.04,SSE,164,3.0,8.0,44,0.00,,,0.00,meteohub,2013-07-18 19:00:00,
2013-07-18 15:03:00,99.1,72.0,30.04,WSW,254,4.0,8.0,44,0.00,,,0.00,meteohub,2013-07-18 19:03:00,
2013-07-18 15:04:00,99.1,72.0,30.04,WSW,254,1.0,8.0,44,0.00,,,0.00,meteohub,2013-07-18 19:04:00,
2013-07-18 15:05:00,98.6,72.0,30.04,WSW,254,8.0,8.0,44,0.00,,,0.00,meteohub,2013-07-18 19:05:00,
2013-07-18 15:08:00,98.8,72.7,30.04,WSW,254,6.0,8.0,45,0.00,,,0.00,meteohub,2013-07-18 19:08:00,
2013-07-18 15:09:00,98.4,72.7,30.04,West,276,6.0,8.0,45,0.00,,,0.00,meteohub,2013-07-18 19:09:00,
2013-07-18 15:10:00,99.0,72.7,30.04,WNW,299,4.0,8.0,45,0.00,,,0.00,meteohub,2013-07-18 19:10:00,
2013-07-18 15:11:00,99.0,72.7,30.04,West,276,4.0,8.0,45,0.00,,,0.00,meteohub,2013-07-18 19:11:00,
2013-07-18 15:13:00,99.1,72.7,30.04,SW,232,3.0,8.0,45,0.00,,,0.00,meteohub,2013-07-18 19:13:00,
2013-07-18 15:15:00,99.1,72.7,30.04,South,186,1.0,8.0,45,0.00,,,0.00,meteohub,2013-07-18 19:15:00,
2013-07-18 15:16:00,98.8,72.1,30.04,South,186,4.0,8.0,44,0.00,,,0.00,meteohub,2013-07-18 19:16:00,
2013-07-18 15:17:00,98.6,72.1,30.04,WSW,254,4.0,8.0,44,0.00,,,0.00,meteohub,2013-07-18 19:17:00,
2013-07-18 15:18:00,98.1,72.0,30.04,WSW,254,2.0,8.0,44,0.00,,,0.00,meteohub,2013-07-18 19:18:00,
2013-07-18 15:21:00,97.3,71.8,30.04,SSW,209,4.0,7.0,44,0.00,,,0.00,meteohub,2013-07-18 19:21:00,
2013-07-18 15:22:00,97.3,71.8,30.04,SSW,209,4.0,7.0,44,0.00,,,0.00,meteohub,2013-07-18 19:22:00,
2013-07-18 15:23:00,96.8,71.8,30.04,SSW,209,8.0,8.0,44,0.00,,,0.00,meteohub,2013-07-18 19:23:00,
2013-07-18 15:27:00,96.1,70.9,30.04,SW,232,9.0,9.0,43,0.00,,,0.00,meteohub,2013-07-18 19:27:00,
2013-07-18 15:28:00,96.1,71.4,30.04,SSW,209,8.0,8.0,44,0.00,,,0.00,meteohub,2013-07-18 19:28:00,
2013-07-18 15:32:00,96.6,70.7,30.04,WSW,254,4.0,11.0,43,0.00,,,0.00,meteohub,2013-07-18 19:32:00,
2013-07-18 15:33:00,97.0,71.4,30.04,SSW,209,5.0,11.0,44,0.00,,,0.00,meteohub,2013-07-18 19:33:00,
2013-07-18 15:34:00,97.2,71.6,30.04,South,186,4.0,11.0,44,0.00,,,0.00,meteohub,2013-07-18 19:34:00,
2013-07-18 15:37:00,97.5,70.9,30.04,SE,142,0.0,11.0,43,0.00,,,0.00,meteohub,2013-07-18 19:37:00,
2013-07-18 15:38:00,97.7,70.9,30.01,SE,142,2.0,11.0,43,0.00,,,0.00,meteohub,2013-07-18 19:38:00,
2013-07-18 15:39:00,97.7,70.9,30.01,SSE,164,3.0,11.0,43,0.00,,,0.00,meteohub,2013-07-18 19:39:00,
2013-07-18 15:42:00,97.0,71.4,30.01,WSW,254,3.0,11.0,44,0.00,,,0.00,meteohub,2013-07-18 19:42:00,
2013-07-18 15:43:00,97.0,71.4,30.01,WSW,254,6.0,11.0,44,0.00,,,0.00,meteohub,2013-07-18 19:43:00,
2013-07-18 15:44:00,96.6,71.2,30.01,SW,232,7.0,11.0,44,0.00,,,0.00,meteohub,2013-07-18 19:44:00,
2013-07-18 15:48:00,95.7,71.8,30.01,SSW,209,10.0,10.0,45,0.00,,,0.00,meteohub,2013-07-18 19:48:00,
2013-07-18 15:49:00,95.7,71.2,30.01,South,186,4.0,9.0,44,0.00,,,0.00,meteohub,2013-07-18 19:49:00,
2013-07-18 15:50:00,95.9,71.2,30.01,SSE,164,2.0,11.0,44,0.00,,,0.00,meteohub,2013-07-18 19:50:00,
2013-07-18 15:53:00,96.3,72.1,30.01,SSW,209,5.0,11.0,45,0.00,,,0.00,meteohub,2013-07-18 19:53:00,
2013-07-18 15:54:00,96.3,72.1,30.01,SW,232,8.0,11.0,45,0.00,,,0.00,meteohub,2013-07-18 19:54:00,
2013-07-18 15:55:00,96.3,72.1,30.01,SW,232,6.0,11.0,45,0.00,,,0.00,meteohub,2013-07-18 19:55:00,
2013-07-18 15:58:00,96.6,72.1,30.01,SSW,209,5.0,11.0,45,0.00,,,0.00,meteohub,2013-07-18 19:58:00,
2013-07-18 15:59:00,96.8,72.1,30.01,WSW,254,11.0,11.0,45,0.00,,,0.00,meteohub,2013-07-18 19:59:00,
2013-07-18 16:00:00,96.4,72.0,30.01,SW,232,7.0,11.0,45,0.00,,,0.00,meteohub,2013-07-18 20:00:00,
2013-07-18 16:01:00,96.1,72.0,30.01,WNW,299,7.0,11.0,45,0.00,,,0.00,meteohub,2013-07-18 20:01:00,
2013-07-18 16:03:00,96.3,72.0,30.01,SSW,209,5.0,11.0,45,0.00,,,0.00,meteohub,2013-07-18 20:03:00,
2013-07-18 16:04:00,96.1,72.0,30.01,SW,232,6.0,11.0,45,0.00,,,0.00,meteohub,2013-07-18 20:04:00,
2013-07-18 16:05:00,95.9,71.8,30.01,WSW,254,5.0,11.0,45,0.00,,,0.00,meteohub,2013-07-18 20:05:00,
2013-07-18 16:07:00,95.9,71.8,30.01,South,186,4.0,11.0,45,0.00,,,0.00,meteohub,2013-07-18 20:07:00,
2013-07-18 16:08:00,95.9,72.5,30.01,SSW,209,11.0,11.0,46,0.00,,,0.00,meteohub,2013-07-18 20:08:00,
2013-07-18 16:09:00,95.9,73.0,30.01,SSW,209,5.0,11.0,47,0.00,,,0.00,meteohub,2013-07-18 20:09:00,
2013-07-18 16:10:00,95.9,73.0,30.01,SSE,164,6.0,11.0,47,0.00,,,0.00,meteohub,2013-07-18 20:10:00,
2013-07-18 16:11:00,95.9,72.5,30.01,South,186,7.0,11.0,46,0.00,,,0.00,meteohub,2013-07-18 20:11:00,
2013-07-18 16:13:00,96.3,72.5,30.01,SW,232,10.0,11.0,46,0.00,,,0.00,meteohub,2013-07-18 20:13:00,
2013-07-18 16:15:00,96.6,73.2,30.01,WSW,254,9.0,11.0,47,0.00,,,0.00,meteohub,2013-07-18 20:15:00,
2013-07-18 16:18:00,96.8,72.7,30.01,WNW,299,5.0,11.0,46,0.00,,,0.00,meteohub,2013-07-18 20:18:00,
2013-07-18 16:19:00,96.8,72.7,30.01,WNW,299,5.0,11.0,46,0.00,,,0.00,meteohub,2013-07-18 20:19:00,
2013-07-18 16:21:00,97.0,72.7,30.01,WSW,254,2.0,11.0,46,0.00,,,0.00,meteohub,2013-07-18 20:21:00,
2013-07-18 16:24:00,97.2,72.7,30.01,WSW,254,8.0,11.0,46,0.00,,,0.00,meteohub,2013-07-18 20:24:00,
2013-07-18 16:25:00,97.2,72.7,30.01,WSW,254,6.0,11.0,46,0.00,,,0.00,meteohub,2013-07-18 20:25:00,
2013-07-18 16:26:00,97.2,72.7,30.01,SSW,209,12.0,12.0,46,0.00,,,0.00,meteohub,2013-07-18 20:26:00,
2013-07-18 16:29:00,97.2,72.7,30.01,West,276,6.0,11.0,46,0.00,,,0.00,meteohub,2013-07-18 20:29:00,
2013-07-18 16:30:00,97.3,72.7,30.01,SW,232,6.0,12.0,46,0.00,,,0.00,meteohub,2013-07-18 20:30:00,
2013-07-18 16:31:00,97.2,72.7,30.01,SSW,209,6.0,12.0,46,0.00,,,0.00,meteohub,2013-07-18 20:31:00,
2013-07-18 16:32:00,97.0,72.7,30.01,WNW,299,12.0,12.0,46,0.00,,,0.00,meteohub,2013-07-18 20:32:00,
2013-07-18 16:34:00,97.2,72.9,30.01,WSW,254,6.0,12.0,46,0.00,,,0.00,meteohub,2013-07-18 20:34:00,
2013-07-18 16:35:00,97.3,73.0,30.01,West,276,6.0,12.0,46,0.00,,,0.00,meteohub,2013-07-18 20:35:00,
2013-07-18 16:36:00,97.3,73.0,30.01,West,276,6.0,12.0,46,0.00,,,0.00,meteohub,2013-07-18 20:36:00,
2013-07-18 16:37:00,97.3,73.0,30.01,WSW,254,11.0,12.0,46,0.00,,,0.00,meteohub,2013-07-18 20:37:00,
2013-07-18 16:39:00,97.3,73.0,30.01,WSW,254,6.0,12.0,46,0.00,,,0.00,meteohub,2013-07-18 20:39:00,
2013-07-18 16:41:00,97.3,73.0,30.01,SSW,209,8.0,12.0,46,0.00,,,0.00,meteohub,2013-07-18 20:41:00,
2013-07-18 16:42:00,97.2,72.9,30.01,SW,232,9.0,12.0,46,0.00,,,0.00,meteohub,2013-07-18 20:42:00,
2013-07-18 16:43:00,97.2,72.9,30.01,SW,232,13.0,13.0,46,0.00,,,0.00,meteohub,2013-07-18 20:43:00,
2013-07-18 16:44:00,96.8,72.9,30.01,WSW,254,6.0,12.0,46,0.00,,,0.00,meteohub,2013-07-18 20:44:00,
2013-07-18 16:46:00,96.8,72.9,30.01,WSW,254,8.0,13.0,46,0.00,,,0.00,meteohub,2013-07-18 20:46:00,
2013-07-18 16:47:00,96.6,72.9,30.01,WSW,254,8.0,13.0,46,0.00,,,0.00,meteohub,2013-07-18 20:47:00,
2013-07-18 16:48:00,96.6,72.9,30.01,WSW,254,6.0,13.0,46,0.00,,,0.00,meteohub,2013-07-18 20:48:00,
2013-07-18 16:50:00,96.8,72.9,30.01,South,186,10.0,13.0,46,0.00,,,0.00,meteohub,2013-07-18 20:50:00,
2013-07-18 16:51:00,96.6,72.3,30.01,SSW,209,10.0,13.0,45,0.00,,,0.00,meteohub,2013-07-18 20:51:00,
2013-07-18 16:53:00,96.1,72.1,29.98,SSW,209,11.0,13.0,45,0.00,,,0.00,meteohub,2013-07-18 20:53:00,
2013-07-18 16:55:00,95.7,71.4,29.98,SSW,209,9.0,13.0,44,0.00,,,0.00,meteohub,2013-07-18 20:55:00,
2013-07-18 16:56:00,95.7,71.4,29.98,SW,232,7.0,13.0,44,0.00,,,0.00,meteohub,2013-07-18 20:56:00,
2013-07-18 16:58:00,95.5,71.2,29.98,SW,232,5.0,13.0,44,0.00,,,0.00,meteohub,2013-07-18 20:58:00,
2013-07-18 17:00:00,95.4,71.2,29.98,SSW,209,4.0,12.0,44,0.00,,,0.00,meteohub,2013-07-18 21:00:00,
2013-07-18 17:01:00,95.5,71.2,29.98,SW,232,6.0,12.0,44,0.00,,,0.00,meteohub,2013-07-18 21:01:00,
2013-07-18 17:03:00,95.7,71.2,29.98,SSE,164,2.0,12.0,44,0.00,,,0.00,meteohub,2013-07-18 21:03:00,
2013-07-18 17:05:00,95.9,72.0,29.98,SW,232,8.0,12.0,45,0.00,,,0.00,meteohub,2013-07-18 21:05:00,
2013-07-18 17:06:00,95.9,72.0,29.98,WSW,254,9.0,12.0,45,0.00,,,0.00,meteohub,2013-07-18 21:06:00,
2013-07-18 17:07:00,95.9,72.0,29.98,SSW,209,9.0,12.0,45,0.00,,,0.00,meteohub,2013-07-18 21:07:00,
2013-07-18 17:09:00,95.9,71.8,29.98,SW,232,3.0,12.0,45,0.00,,,0.00,meteohub,2013-07-18 21:09:00,
2013-07-18 17:10:00,96.1,72.0,29.98,SW,232,6.0,9.0,45,0.00,,,0.00,meteohub,2013-07-18 21:10:00,
2013-07-18 17:11:00,95.9,72.0,29.98,WNW,299,6.0,9.0,45,0.00,,,0.00,meteohub,2013-07-18 21:11:00,
2013-07-18 17:12:00,95.9,72.0,29.98,WNW,299,6.0,9.0,45,0.00,,,0.00,meteohub,2013-07-18 21:12:00,
2013-07-18 17:14:00,95.5,72.7,29.98,SSW,209,6.0,9.0,46,0.00,,,0.00,meteohub,2013-07-18 21:14:00,
2013-07-18 17:16:00,95.5,72.7,29.98,SSW,209,5.0,11.0,46,0.00,,,0.00,meteohub,2013-07-18 21:16:00,
2013-07-18 17:17:00,95.5,72.7,29.98,SSW,209,6.0,11.0,46,0.00,,,0.00,meteohub,2013-07-18 21:17:00,
2013-07-18 17:18:00,95.5,72.7,29.98,SSE,164,6.0,11.0,46,0.00,,,0.00,meteohub,2013-07-18 21:18:00,
2013-07-18 17:19:00,95.4,72.7,29.98,SSW,209,5.0,11.0,46,0.00,,,0.00,meteohub,2013-07-18 21:19:00,
2013-07-18 17:21:00,95.5,72.5,29.98,SSW,209,3.0,11.0,46,0.00,,,0.00,meteohub,2013-07-18 21:21:00,
2013-07-18 17:22:00,95.5,72.5,29.98,SSW,209,4.0,11.0,46,0.00,,,0.00,meteohub,2013-07-18 21:22:00,
2013-07-18 17:23:00,95.7,72.5,29.98,WSW,254,4.0,11.0,46,0.00,,,0.00,meteohub,2013-07-18 21:23:00,
2013-07-18 17:24:00,95.9,73.0,29.98,WSW,254,3.0,11.0,47,0.00,,,0.00,meteohub,2013-07-18 21:24:00,
2013-07-18 17:26:00,96.1,73.0,29.98,SW,232,3.0,11.0,47,0.00,,,0.00,meteohub,2013-07-18 21:26:00,
2013-07-18 17:27:00,96.1,73.0,29.98,WSW,254,5.0,11.0,47,0.00,,,0.00,meteohub,2013-07-18 21:27:00,
2013-07-18 17:28:00,96.3,73.0,29.98,SW,232,2.0,11.0,47,0.00,,,0.00,meteohub,2013-07-18 21:28:00,
2013-07-18 17:29:00,96.6,73.0,29.98,NNW,344,3.0,11.0,47,0.00,,,0.00,meteohub,2013-07-18 21:29:00,
2013-07-18 17:31:00,96.6,73.0,29.98,WNW,299,6.0,7.0,47,0.00,,,0.00,meteohub,2013-07-18 21:31:00,
2013-07-18 17:32:00,96.6,73.0,29.98,WNW,299,6.0,7.0,47,0.00,,,0.00,meteohub,2013-07-18 21:32:00,
2013-07-18 17:34:00,96.8,73.2,29.98,WSW,254,3.0,7.0,47,0.00,,,0.00,meteohub,2013-07-18 21:34:00,
2013-07-18 17:36:00,97.0,73.4,29.98,SSW,209,6.0,6.0,47,0.00,,,0.00,meteohub,2013-07-18 21:36:00,
2013-07-18 17:37:00,96.8,73.4,29.98,SSW,209,6.0,6.0,47,0.00,,,0.00,meteohub,2013-07-18 21:37:00,
2013-07-18 17:39:00,96.6,73.4,29.98,SSW,209,4.0,6.0,47,0.00,,,0.00,meteohub,2013-07-18 21:39:00,
2013-07-18 17:40:00,96.6,73.4,29.98,SSW,209,6.0,6.0,47,0.00,,,0.00,meteohub,2013-07-18 21:40:00,
2013-07-18 17:42:00,96.4,73.4,29.98,WSW,254,4.0,6.0,47,0.00,,,0.00,meteohub,2013-07-18 21:42:00,
2013-07-18 17:44:00,96.4,73.9,29.98,SSW,209,6.0,6.0,48,0.00,,,0.00,meteohub,2013-07-18 21:44:00,
2013-07-18 17:45:00,96.3,73.9,29.98,SW,232,7.0,7.0,48,0.00,,,0.00,meteohub,2013-07-18 21:45:00,
2013-07-18 17:47:00,96.1,73.9,29.98,South,186,3.0,7.0,48,0.00,,,0.00,meteohub,2013-07-18 21:47:00,
2013-07-18 17:49:00,96.1,73.9,29.98,SW,232,4.0,7.0,48,0.00,,,0.00,meteohub,2013-07-18 21:49:00,
2013-07-18 17:50:00,95.9,73.9,29.98,SSE,164,5.0,9.0,48,0.00,,,0.00,meteohub,2013-07-18 21:50:00,
2013-07-18 17:52:00,95.7,74.3,29.98,WSW,254,6.0,9.0,49,0.00,,,0.00,meteohub,2013-07-18 21:52:00,
2013-07-18 17:53:00,95.7,74.3,29.98,WSW,254,6.0,9.0,49,0.00,,,0.00,meteohub,2013-07-18 21:53:00,
2013-07-18 17:54:00,96.1,74.5,29.98,South,186,7.0,9.0,49,0.00,,,0.00,meteohub,2013-07-18 21:54:00,
2013-07-18 17:55:00,95.9,74.5,29.98,SSW,209,6.0,9.0,49,0.00,,,0.00,meteohub,2013-07-18 21:55:00,
2013-07-18 17:56:00,95.9,74.5,29.98,SSW,209,6.0,9.0,49,0.00,,,0.00,meteohub,2013-07-18 21:56:00,
2013-07-18 17:58:00,95.5,74.3,29.98,SSW,209,5.0,9.0,49,0.00,,,0.00,meteohub,2013-07-18 21:58:00,
2013-07-18 17:59:00,95.5,74.3,29.98,SSE,164,2.0,9.0,49,0.00,,,0.00,meteohub,2013-07-18 21:59:00,
2013-07-18 18:01:00,95.9,74.3,29.98,WSW,254,3.0,9.0,49,0.00,,,0.00,meteohub,2013-07-18 22:01:00,
2013-07-18 18:03:00,96.3,74.5,29.98,SSW,209,4.0,9.0,49,0.00,,,0.00,meteohub,2013-07-18 22:03:00,
2013-07-18 18:04:00,96.3,74.5,29.98,SSW,209,4.0,9.0,49,0.00,,,0.00,meteohub,2013-07-18 22:04:00,
2013-07-18 18:06:00,96.1,74.5,29.98,SW,232,8.0,9.0,49,0.00,,,0.00,meteohub,2013-07-18 22:06:00,
2013-07-18 18:07:00,96.1,74.5,29.98,West,276,6.0,9.0,49,0.00,,,0.00,meteohub,2013-07-18 22:07:00,
2013-07-18 18:09:00,96.1,74.5,29.98,WSW,254,7.0,9.0,49,0.00,,,0.00,meteohub,2013-07-18 22:09:00,
2013-07-18 18:11:00,96.1,74.5,29.98,SSE,164,5.0,8.0,49,0.00,,,0.00,meteohub,2013-07-18 22:11:00,
2013-07-18 18:12:00,95.9,73.9,29.98,SSW,209,3.0,8.0,48,0.00,,,0.00,meteohub,2013-07-18 22:12:00,
2013-07-18 18:14:00,95.9,74.3,29.98,SSW,209,4.0,8.0,49,0.00,,,0.00,meteohub,2013-07-18 22:14:00,
2013-07-18 18:15:00,95.9,74.3,29.98,SSW,209,6.0,8.0,49,0.00,,,0.00,meteohub,2013-07-18 22:15:00,
2013-07-18 18:17:00,95.9,74.3,29.98,SSW,209,4.0,8.0,49,0.00,,,0.00,meteohub,2013-07-18 22:17:00,
2013-07-18 18:18:00,95.7,74.3,29.98,SSW,209,6.0,8.0,49,0.00,,,0.00,meteohub,2013-07-18 22:18:00,
2013-07-18 18:19:00,95.9,73.9,29.98,SW,232,9.0,9.0,48,0.00,,,0.00,meteohub,2013-07-18 22:19:00,
2013-07-18 18:20:00,95.9,73.9,29.98,South,186,6.0,9.0,48,0.00,,,0.00,meteohub,2013-07-18 22:20:00,
2013-07-18 18:23:00,95.5,73.9,29.98,SSW,209,4.0,9.0,48,0.00,,,0.00,meteohub,2013-07-18 22:23:00,
2013-07-18 18:24:00,95.5,74.5,29.98,WSW,254,4.0,9.0,49,0.00,,,0.00,meteohub,2013-07-18 22:24:00,
2013-07-18 18:25:00,95.5,74.5,29.98,South,186,6.0,9.0,49,0.00,,,0.00,meteohub,2013-07-18 22:25:00,
2013-07-18 18:26:00,95.5,74.7,29.98,South,186,6.0,9.0,49,0.00,,,0.00,meteohub,2013-07-18 22:26:00,
2013-07-18 18:28:00,95.5,74.5,29.98,South,186,4.0,9.0,49,0.00,,,0.00,meteohub,2013-07-18 22:28:00,
2013-07-18 18:29:00,95.4,74.5,29.98,SSW,209,6.0,9.0,49,0.00,,,0.00,meteohub,2013-07-18 22:29:00,
2013-07-18 18:30:00,95.4,74.5,29.98,SSW,209,6.0,9.0,49,0.00,,,0.00,meteohub,2013-07-18 22:30:00,
2013-07-18 18:32:00,95.5,74.7,29.98,SSW,209,6.0,9.0,49,0.00,,,0.00,meteohub,2013-07-18 22:32:00,
2013-07-18 18:33:00,95.5,74.7,29.98,SSW,209,4.0,9.0,49,0.00,,,0.00,meteohub,2013-07-18 22:33:00,
2013-07-18 18:35:00,95.5,74.5,29.98,SSW,209,4.0,9.0,49,0.00,,,0.00,meteohub,2013-07-18 22:35:00,
2013-07-18 18:36:00,95.5,74.5,29.98,South,186,3.0,9.0,49,0.00,,,0.00,meteohub,2013-07-18 22:36:00,
2013-07-18 18:37:00,95.5,74.3,29.98,WSW,254,6.0,9.0,49,0.00,,,0.00,meteohub,2013-07-18 22:37:00,
2013-07-18 18:38:00,95.4,74.8,29.98,WSW,254,6.0,9.0,50,0.00,,,0.00,meteohub,2013-07-18 22:38:00,
2013-07-18 18:39:00,95.4,74.8,29.98,WSW,254,6.0,9.0,50,0.00,,,0.00,meteohub,2013-07-18 22:39:00,
2013-07-18 18:40:00,95.2,74.8,29.98,SSW,209,8.0,8.0,50,0.00,,,0.00,meteohub,2013-07-18 22:40:00,
2013-07-18 18:41:00,95.0,74.8,29.98,SSW,209,6.0,8.0,50,0.00,,,0.00,meteohub,2013-07-18 22:41:00,
2013-07-18 18:43:00,95.0,74.3,29.98,South,186,9.0,9.0,49,0.00,,,0.00,meteohub,2013-07-18 22:43:00,
2013-07-18 18:44:00,95.2,74.3,29.98,SSW,209,6.0,8.0,49,0.00,,,0.00,meteohub,2013-07-18 22:44:00,
2013-07-18 18:46:00,95.0,74.1,29.98,SSW,209,6.0,11.0,49,0.00,,,0.00,meteohub,2013-07-18 22:46:00,
2013-07-18 18:48:00,95.2,74.3,29.98,SW,232,9.0,11.0,49,0.00,,,0.00,meteohub,2013-07-18 22:48:00,
2013-07-18 18:49:00,95.0,74.8,29.98,SSW,209,6.0,11.0,50,0.00,,,0.00,meteohub,2013-07-18 22:49:00,
2013-07-18 18:51:00,95.2,74.5,29.98,SSW,209,6.0,11.0,49,0.00,,,0.00,meteohub,2013-07-18 22:51:00,
2013-07-18 18:52:00,95.0,74.3,29.98,SSW,209,3.0,11.0,49,0.00,,,0.00,meteohub,2013-07-18 22:52:00,
2013-07-18 18:54:00,95.2,74.5,29.98,SSW,209,4.0,11.0,49,0.00,,,0.00,meteohub,2013-07-18 22:54:00,
2013-07-18 18:56:00,95.4,74.5,29.98,SSW,209,6.0,11.0,49,0.00,,,0.00,meteohub,2013-07-18 22:56:00,
2013-07-18 18:58:00,95.4,74.5,29.98,SW,232,4.0,11.0,49,0.00,,,0.00,meteohub,2013-07-18 22:58:00,
2013-07-18 18:59:00,95.4,74.5,29.98,SSW,209,6.0,11.0,49,0.00,,,0.00,meteohub,2013-07-18 22:59:00,
2013-07-18 19:02:00,95.0,74.8,29.98,SSW,209,6.0,9.0,50,0.00,,,0.00,meteohub,2013-07-18 23:02:00,
2013-07-18 19:03:00,94.8,74.8,29.98,WSW,254,6.0,9.0,50,0.00,,,0.00,meteohub,2013-07-18 23:03:00,
2013-07-18 19:04:00,94.8,74.8,29.98,SSE,164,3.0,9.0,50,0.00,,,0.00,meteohub,2013-07-18 23:04:00,
2013-07-18 19:05:00,94.8,74.8,29.98,SSW,209,2.0,9.0,50,0.00,,,0.00,meteohub,2013-07-18 23:05:00,
2013-07-18 19:08:00,94.6,74.8,30.01,SSW,209,3.0,7.0,50,0.00,,,0.00,meteohub,2013-07-18 23:08:00,
2013-07-18 19:09:00,94.6,74.8,30.01,SSW,209,4.0,7.0,50,0.00,,,0.00,meteohub,2013-07-18 23:09:00,
2013-07-18 19:10:00,94.6,74.8,30.01,SSW,209,5.0,7.0,50,0.00,,,0.00,meteohub,2013-07-18 23:10:00,
2013-07-18 19:14:00,94.6,74.7,30.01,South,186,2.0,7.0,50,0.00,,,0.00,meteohub,2013-07-18 23:14:00,
2013-07-18 19:15:00,94.6,74.7,30.01,South,186,4.0,7.0,50,0.00,,,0.00,meteohub,2013-07-18 23:15:00,
2013-07-18 19:19:00,94.5,75.2,30.01,SW,232,6.0,7.0,51,0.00,,,0.00,meteohub,2013-07-18 23:19:00,
2013-07-18 19:20:00,94.3,75.2,30.01,SSW,209,6.0,6.0,51,0.00,,,0.00,meteohub,2013-07-18 23:20:00,
2013-07-18 19:21:00,94.3,75.7,30.01,WSW,254,5.0,6.0,52,0.00,,,0.00,meteohub,2013-07-18 23:21:00,
2013-07-18 19:24:00,94.1,75.0,30.01,SSW,209,6.0,6.0,51,0.00,,,0.00,meteohub,2013-07-18 23:24:00,
2013-07-18 19:25:00,94.1,75.0,30.01,SSW,209,6.0,6.0,51,0.00,,,0.00,meteohub,2013-07-18 23:25:00,
2013-07-18 19:26:00,94.1,74.8,30.01,SSW,209,6.0,6.0,51,0.00,,,0.00,meteohub,2013-07-18 23:26:00,
2013-07-18 19:30:00,93.7,74.1,30.01,WSW,254,5.0,6.0,50,0.00,,,0.00,meteohub,2013-07-18 23:30:00,
2013-07-18 19:31:00,93.7,74.1,30.01,SSW,209,6.0,6.0,50,0.00,,,0.00,meteohub,2013-07-18 23:31:00,
2013-07-18 19:35:00,93.6,74.7,30.01,SSW,209,4.0,7.0,51,0.00,,,0.00,meteohub,2013-07-18 23:35:00,
2013-07-18 19:36:00,93.4,74.5,30.01,SSW,209,4.0,7.0,51,0.00,,,0.00,meteohub,2013-07-18 23:36:00,
2013-07-18 19:40:00,93.4,74.7,30.01,SSW,209,6.0,7.0,51,0.00,,,0.00,meteohub,2013-07-18 23:40:00,
2013-07-18 19:41:00,93.4,74.7,30.01,SSW,209,6.0,7.0,51,0.00,,,0.00,meteohub,2013-07-18 23:41:00,
2013-07-18 19:42:00,93.2,74.7,30.01,SSW,209,5.0,7.0,51,0.00,,,0.00,meteohub,2013-07-18 23:42:00,
2013-07-18 19:46:00,93.0,74.3,30.01,SSW,209,4.0,7.0,51,0.00,,,0.00,meteohub,2013-07-18 23:46:00,
2013-07-18 19:47:00,92.8,75.0,30.01,SSW,209,3.0,7.0,52,0.00,,,0.00,meteohub,2013-07-18 23:47:00,
2013-07-18 19:51:00,92.7,74.8,30.01,SSW,209,6.0,7.0,52,0.00,,,0.00,meteohub,2013-07-18 23:51:00,
2013-07-18 19:52:00,92.5,74.8,30.01,SSW,209,5.0,7.0,52,0.00,,,0.00,meteohub,2013-07-18 23:52:00,
2013-07-18 19:56:00,92.5,74.7,30.01,SSW,209,5.0,7.0,52,0.00,,,0.00,meteohub,2013-07-18 23:56:00,
2013-07-18 19:57:00,92.5,74.7,30.01,SSW,209,6.0,7.0,52,0.00,,,0.00,meteohub,2013-07-18 23:57:00,
2013-07-18 20:02:00,92.5,75.0,30.01,SSW,209,4.0,7.0,52,0.00,,,0.00,meteohub,2013-07-19 00:02:00,
2013-07-18 20:03:00,92.5,75.0,30.01,SSW,209,6.0,7.0,52,0.00,,,0.00,meteohub,2013-07-19 00:03:00,
2013-07-18 20:07:00,92.1,75.4,30.01,SSW,209,6.0,7.0,53,0.00,,,0.00,meteohub,2013-07-19 00:07:00,
2013-07-18 20:08:00,92.1,75.2,30.01,SSW,209,4.0,7.0,53,0.00,,,0.00,meteohub,2013-07-19 00:08:00,
2013-07-18 20:12:00,91.9,75.6,30.01,WSW,254,4.0,6.0,54,0.00,,,0.00,meteohub,2013-07-19 00:12:00,
2013-07-18 20:13:00,91.9,75.6,30.01,SSW,209,4.0,6.0,54,0.00,,,0.00,meteohub,2013-07-19 00:13:00,
2013-07-18 20:17:00,91.6,75.2,30.01,South,186,3.0,6.0,54,0.00,,,0.00,meteohub,2013-07-19 00:17:00,
2013-07-18 20:18:00,91.6,75.2,30.01,SSW,209,3.0,6.0,54,0.00,,,0.00,meteohub,2013-07-19 00:18:00,
2013-07-18 20:19:00,91.6,75.2,30.01,SSW,209,3.0,6.0,54,0.00,,,0.00,meteohub,2013-07-19 00:19:00,
2013-07-18 20:23:00,91.4,75.9,30.01,SSW,209,3.0,6.0,55,0.00,,,0.00,meteohub,2013-07-19 00:23:00,
2013-07-18 20:24:00,91.4,75.9,30.01,South,186,2.0,6.0,55,0.00,,,0.00,meteohub,2013-07-19 00:24:00,
2013-07-18 20:25:00,91.4,75.9,30.01,SSW,209,4.0,6.0,55,0.00,,,0.00,meteohub,2013-07-19 00:25:00,
2013-07-18 20:29:00,91.0,76.1,30.01,SSE,164,3.0,5.0,56,0.00,,,0.00,meteohub,2013-07-19 00:29:00,
2013-07-18 20:30:00,91.0,76.6,30.01,SSW,209,4.0,5.0,57,0.00,,,0.00,meteohub,2013-07-19 00:30:00,
2013-07-18 20:31:00,91.0,76.6,30.01,SSE,164,2.0,4.0,57,0.00,,,0.00,meteohub,2013-07-19 00:31:00,
2013-07-18 20:33:00,90.9,77.0,30.01,SE,142,2.0,4.0,58,0.00,,,0.00,meteohub,2013-07-19 00:33:00,
2013-07-18 20:34:00,90.9,77.0,30.01,SSE,164,2.0,4.0,58,0.00,,,0.00,meteohub,2013-07-19 00:34:00,
2013-07-18 20:35:00,90.9,77.0,30.01,SW,232,2.0,5.0,58,0.00,,,0.00,meteohub,2013-07-19 00:35:00,
2013-07-18 20:36:00,90.7,77.0,30.01,SSE,164,4.0,5.0,58,0.00,,,0.00,meteohub,2013-07-19 00:36:00,
2013-07-18 20:39:00,90.5,76.8,30.01,SSW,209,3.0,5.0,58,0.00,,,0.00,meteohub,2013-07-19 00:39:00,
2013-07-18 20:40:00,90.7,76.8,30.01,SSW,209,3.0,5.0,58,0.00,,,0.00,meteohub,2013-07-19 00:40:00,
2013-07-18 20:41:00,90.5,76.8,30.01,SSW,209,3.0,5.0,58,0.00,,,0.00,meteohub,2013-07-19 00:41:00,
2013-07-18 20:44:00,90.5,76.8,30.01,SSW,209,4.0,5.0,58,0.00,,,0.00,meteohub,2013-07-19 00:44:00,
2013-07-18 20:45:00,90.5,76.8,30.01,SSW,209,4.0,5.0,58,0.00,,,0.00,meteohub,2013-07-19 00:45:00,
2013-07-18 20:46:00,90.5,76.8,30.01,South,186,2.0,5.0,58,0.00,,,0.00,meteohub,2013-07-19 00:46:00,
2013-07-18 20:47:00,90.3,76.6,30.01,South,186,3.0,5.0,58,0.00,,,0.00,meteohub,2013-07-19 00:47:00,
2013-07-18 20:49:00,90.3,77.2,30.01,SSW,209,3.0,5.0,59,0.00,,,0.00,meteohub,2013-07-19 00:49:00,
2013-07-18 20:50:00,90.1,77.0,30.01,SSW,209,4.0,5.0,59,0.00,,,0.00,meteohub,2013-07-19 00:50:00,
2013-07-18 20:51:00,90.1,77.0,30.01,SSW,209,5.0,5.0,59,0.00,,,0.00,meteohub,2013-07-19 00:51:00,
2013-07-18 20:52:00,90.1,77.0,30.01,SSE,164,3.0,5.0,59,0.00,,,0.00,meteohub,2013-07-19 00:52:00,
2013-07-18 20:55:00,90.0,76.8,30.01,SSW,209,4.0,5.0,59,0.00,,,0.00,meteohub,2013-07-19 00:55:00,
2013-07-18 20:56:00,90.0,76.8,30.01,SSW,209,4.0,5.0,59,0.00,,,0.00,meteohub,2013-07-19 00:56:00,
2013-07-18 20:57:00,90.0,76.8,30.01,SSW,209,4.0,5.0,59,0.00,,,0.00,meteohub,2013-07-19 00:57:00,
2013-07-18 20:58:00,89.8,77.2,30.01,SSW,209,4.0,5.0,60,0.00,,,0.00,meteohub,2013-07-19 00:58:00,
2013-07-18 21:01:00,89.8,76.6,30.01,SSW,209,3.0,5.0,59,0.00,,,0.00,meteohub,2013-07-19 01:01:00,
2013-07-18 21:02:00,89.8,77.2,30.01,SSW,209,3.0,5.0,60,0.00,,,0.00,meteohub,2013-07-19 01:02:00,
2013-07-18 21:03:00,89.8,76.6,30.01,SW,232,3.0,5.0,59,0.00,,,0.00,meteohub,2013-07-19 01:03:00,
2013-07-18 21:06:00,89.8,76.8,30.01,SSW,209,5.0,5.0,59,0.00,,,0.00,meteohub,2013-07-19 01:06:00,
2013-07-18 21:07:00,89.8,76.8,30.01,SSW,209,4.0,5.0,59,0.00,,,0.00,meteohub,2013-07-19 01:07:00,
2013-07-18 21:09:00,89.8,76.8,30.01,SSE,164,4.0,5.0,59,0.00,,,0.00,meteohub,2013-07-19 01:09:00,
2013-07-18 21:11:00,89.6,77.2,30.01,SSW,209,3.0,5.0,60,0.00,,,0.00,meteohub,2013-07-19 01:11:00,
2013-07-18 21:12:00,89.6,77.0,30.01,SSW,209,4.0,5.0,60,0.00,,,0.00,meteohub,2013-07-19 01:12:00,
2013-07-18 21:14:00,89.6,77.0,30.01,SSE,164,3.0,5.0,60,0.00,,,0.00,meteohub,2013-07-19 01:14:00,
2013-07-18 21:17:00,89.4,76.8,30.01,SSW,209,4.0,5.0,60,0.00,,,0.00,meteohub,2013-07-19 01:17:00,
2013-07-18 21:18:00,89.4,76.8,30.01,South,186,3.0,5.0,60,0.00,,,0.00,meteohub,2013-07-19 01:18:00,
2013-07-18 21:19:00,89.4,76.8,30.01,South,186,3.0,5.0,60,0.00,,,0.00,meteohub,2013-07-19 01:19:00,
2013-07-18 21:22:00,89.2,76.8,30.01,SSE,164,4.0,5.0,60,0.00,,,0.00,meteohub,2013-07-19 01:22:00,
2013-07-18 21:23:00,89.2,76.8,30.01,SSW,209,6.0,6.0,60,0.00,,,0.00,meteohub,2013-07-19 01:23:00,
2013-07-18 21:24:00,89.2,76.8,30.01,South,186,6.0,6.0,60,0.00,,,0.00,meteohub,2013-07-19 01:24:00,
2013-07-18 21:26:00,89.2,77.4,30.01,SSW,209,2.0,6.0,61,0.00,,,0.00,meteohub,2013-07-19 01:26:00,
2013-07-18 21:28:00,89.1,76.8,30.01,SSW,209,6.0,6.0,60,0.00,,,0.00,meteohub,2013-07-19 01:28:00,
2013-07-18 21:29:00,89.1,77.2,30.01,SSW,209,4.0,6.0,61,0.00,,,0.00,meteohub,2013-07-19 01:29:00,
2013-07-18 21:31:00,89.1,77.7,30.01,SSW,209,3.0,6.0,62,0.00,,,0.00,meteohub,2013-07-19 01:31:00,
2013-07-18 21:33:00,89.1,77.7,30.01,SSW,209,6.0,6.0,62,0.00,,,0.00,meteohub,2013-07-19 01:33:00,
2013-07-18 21:35:00,88.9,77.5,30.01,SW,232,4.0,6.0,62,0.00,,,0.00,meteohub,2013-07-19 01:35:00,
2013-07-18 21:36:00,88.9,77.4,30.01,SSE,164,4.0,6.0,62,0.00,,,0.00,meteohub,2013-07-19 01:36:00,
2013-07-18 21:37:00,88.9,77.4,30.01,South,186,3.0,6.0,62,0.00,,,0.00,meteohub,2013-07-19 01:37:00,
2013-07-18 21:39:00,88.7,77.4,30.01,South,186,4.0,6.0,62,0.00,,,0.00,meteohub,2013-07-19 01:39:00,
2013-07-18 21:40:00,88.7,77.2,30.01,SSW,209,3.0,6.0,62,0.00,,,0.00,meteohub,2013-07-19 01:40:00,
2013-07-18 21:42:00,88.7,77.2,30.01,SSW,209,4.0,6.0,62,0.00,,,0.00,meteohub,2013-07-19 01:42:00,
2013-07-18 21:43:00,88.5,77.0,30.01,South,186,3.0,6.0,62,0.00,,,0.00,meteohub,2013-07-19 01:43:00,
2013-07-18 21:45:00,88.7,77.2,30.01,SSW,209,4.0,6.0,62,0.00,,,0.00,meteohub,2013-07-19 01:45:00,
2013-07-18 21:47:00,88.5,77.2,30.01,SSW,209,4.0,6.0,62,0.00,,,0.00,meteohub,2013-07-19 01:47:00,
2013-07-18 21:48:00,88.5,77.2,30.01,SW,232,3.0,6.0,62,0.00,,,0.00,meteohub,2013-07-19 01:48:00,
2013-07-18 21:49:00,88.5,77.0,30.01,South,186,3.0,6.0,62,0.00,,,0.00,meteohub,2013-07-19 01:49:00,
2013-07-18 21:50:00,88.5,77.0,30.01,SSW,209,3.0,6.0,62,0.00,,,0.00,meteohub,2013-07-19 01:50:00,
2013-07-18 21:51:00,88.5,77.0,30.01,SSW,209,5.0,6.0,62,0.00,,,0.00,meteohub,2013-07-19 01:51:00,
2013-07-18 21:53:00,88.5,77.0,30.01,SSW,209,4.0,6.0,62,0.00,,,0.00,meteohub,2013-07-19 01:53:00,
2013-07-18 21:54:00,88.5,77.0,30.01,South,186,3.0,6.0,62,0.00,,,0.00,meteohub,2013-07-19 01:54:00,
2013-07-18 21:56:00,88.3,77.4,30.01,SSE,164,3.0,6.0,63,0.00,,,0.00,meteohub,2013-07-19 01:56:00,
2013-07-18 21:58:00,88.3,77.4,30.01,South,186,3.0,6.0,63,0.00,,,0.00,meteohub,2013-07-19 01:58:00,
2013-07-18 21:59:00,88.2,77.2,30.01,SSE,164,4.0,6.0,63,0.00,,,0.00,meteohub,2013-07-19 01:59:00,
2013-07-18 22:01:00,88.3,77.2,30.01,South,186,2.0,5.0,63,0.00,,,0.00,meteohub,2013-07-19 02:01:00,
2013-07-18 22:02:00,88.3,77.2,30.01,SSW,209,4.0,5.0,63,0.00,,,0.00,meteohub,2013-07-19 02:02:00,
2013-07-18 22:03:00,88.2,77.5,30.01,SSW,209,4.0,5.0,64,0.00,,,0.00,meteohub,2013-07-19 02:03:00,
2013-07-18 22:05:00,88.2,77.5,30.01,SSW,209,4.0,6.0,64,0.00,,,0.00,meteohub,2013-07-19 02:05:00,
2013-07-18 22:06:00,88.2,77.5,30.01,SSW,209,3.0,6.0,64,0.00,,,0.00,meteohub,2013-07-19 02:06:00,
2013-07-18 22:07:00,88.2,77.5,30.01,South,186,6.0,6.0,64,0.00,,,0.00,meteohub,2013-07-19 02:07:00,
2013-07-18 22:08:00,88.2,77.5,30.01,WSW,254,4.0,6.0,64,0.00,,,0.00,meteohub,2013-07-19 02:08:00,
2013-07-18 22:09:00,88.2,77.5,30.01,SSW,209,5.0,6.0,64,0.00,,,0.00,meteohub,2013-07-19 02:09:00,
2013-07-18 22:10:00,88.0,77.5,30.01,SSW,209,5.0,6.0,64,0.00,,,0.00,meteohub,2013-07-19 02:10:00,
2013-07-18 22:12:00,88.2,77.7,30.01,WSW,254,4.0,6.0,64,0.00,,,0.00,meteohub,2013-07-19 02:12:00,
2013-07-18 22:14:00,88.0,77.5,30.01,SSW,209,5.0,6.0,64,0.00,,,0.00,meteohub,2013-07-19 02:14:00,
2013-07-18 22:15:00,88.0,77.5,30.01,SSW,209,3.0,6.0,64,0.00,,,0.00,meteohub,2013-07-19 02:15:00,
2013-07-18 22:17:00,87.8,77.4,30.01,SSW,209,3.0,6.0,64,0.00,,,0.00,meteohub,2013-07-19 02:17:00,
2013-07-18 22:19:00,87.8,77.7,30.01,WSW,254,3.0,6.0,65,0.00,,,0.00,meteohub,2013-07-19 02:19:00,
2013-07-18 22:20:00,87.8,77.7,30.01,SSW,209,3.0,6.0,65,0.00,,,0.00,meteohub,2013-07-19 02:20:00,
2013-07-18 22:21:00,87.8,77.7,30.01,SSW,209,3.0,6.0,65,0.00,,,0.00,meteohub,2013-07-19 02:21:00,
2013-07-18 22:22:00,87.8,77.5,30.01,SSW,209,4.0,6.0,65,0.00,,,0.00,meteohub,2013-07-19 02:22:00,
2013-07-18 22:24:00,87.8,77.5,30.01,SSW,209,3.0,6.0,65,0.00,,,0.00,meteohub,2013-07-19 02:24:00,
2013-07-18 22:26:00,87.8,77.5,30.01,SSW,209,4.0,6.0,65,0.00,,,0.00,meteohub,2013-07-19 02:26:00,
2013-07-18 22:27:00,87.8,77.5,30.01,SSW,209,4.0,6.0,65,0.00,,,0.00,meteohub,2013-07-19 02:27:00,
2013-07-18 22:30:00,87.6,77.5,30.01,SSW,209,3.0,6.0,65,0.00,,,0.00,meteohub,2013-07-19 02:30:00,
2013-07-18 22:31:00,87.6,77.5,30.01,SSW,209,5.0,6.0,65,0.00,,,0.00,meteohub,2013-07-19 02:31:00,
2013-07-18 22:32:00,87.6,77.5,30.01,SSW,209,4.0,6.0,65,0.00,,,0.00,meteohub,2013-07-19 02:32:00,
2013-07-18 22:35:00,87.6,77.5,30.01,SW,232,3.0,6.0,65,0.00,,,0.00,meteohub,2013-07-19 02:35:00,
2013-07-18 22:36:00,87.6,77.5,30.01,SSW,209,4.0,6.0,65,0.00,,,0.00,meteohub,2013-07-19 02:36:00,
2013-07-18 22:37:00,87.6,77.5,30.01,SW,232,4.0,6.0,65,0.00,,,0.00,meteohub,2013-07-19 02:37:00,
2013-07-18 22:38:00,87.6,77.5,30.01,SSW,209,4.0,6.0,65,0.00,,,0.00,meteohub,2013-07-19 02:38:00,
2013-07-18 22:41:00,87.6,77.9,30.01,SSW,209,3.0,5.0,66,0.00,,,0.00,meteohub,2013-07-19 02:41:00,
2013-07-18 22:42:00,87.6,77.9,30.01,SW,232,3.0,5.0,66,0.00,,,0.00,meteohub,2013-07-19 02:42:00,
2013-07-18 22:43:00,87.4,77.7,30.01,SSW,209,4.0,5.0,66,0.00,,,0.00,meteohub,2013-07-19 02:43:00,
2013-07-18 22:47:00,87.4,77.7,30.01,SSW,209,5.0,5.0,66,0.00,,,0.00,meteohub,2013-07-19 02:47:00,
2013-07-18 22:48:00,87.4,77.7,30.01,SSW,209,4.0,5.0,66,0.00,,,0.00,meteohub,2013-07-19 02:48:00,
2013-07-18 22:52:00,87.3,77.5,30.01,South,186,3.0,5.0,66,0.00,,,0.00,meteohub,2013-07-19 02:52:00,
2013-07-18 22:53:00,87.4,77.7,30.01,SW,232,4.0,5.0,66,0.00,,,0.00,meteohub,2013-07-19 02:53:00,
2013-07-18 22:54:00,87.4,77.7,30.01,South,186,4.0,5.0,66,0.00,,,0.00,meteohub,2013-07-19 02:54:00,
2013-07-18 22:57:00,87.3,77.7,30.01,SSE,164,3.0,5.0,66,0.00,,,0.00,meteohub,2013-07-19 02:57:00,
2013-07-18 22:58:00,87.3,77.7,30.01,SSW,209,3.0,5.0,66,0.00,,,0.00,meteohub,2013-07-19 02:58:00,
2013-07-18 22:59:00,87.4,77.9,30.01,SSW,209,4.0,5.0,66,0.00,,,0.00,meteohub,2013-07-19 02:59:00,
2013-07-18 23:02:00,87.3,77.7,30.01,South,186,4.0,5.0,66,0.00,,,0.00,meteohub,2013-07-19 03:02:00,
2013-07-18 23:03:00,87.1,77.7,30.01,SSW,209,3.0,5.0,66,0.00,,,0.00,meteohub,2013-07-19 03:03:00,
2013-07-18 23:04:00,87.1,77.5,30.01,South,186,4.0,5.0,66,0.00,,,0.00,meteohub,2013-07-19 03:04:00,
2013-07-18 23:08:00,86.9,77.4,30.01,SSW,209,4.0,4.0,66,0.00,,,0.00,meteohub,2013-07-19 03:08:00,
2013-07-18 23:09:00,86.9,77.9,30.01,SSW,209,4.0,4.0,67,0.00,,,0.00,meteohub,2013-07-19 03:09:00,
2013-07-18 23:10:00,86.9,77.9,30.01,South,186,4.0,4.0,67,0.00,,,0.00,meteohub,2013-07-19 03:10:00,
2013-07-18 23:13:00,86.7,77.7,30.01,SSW,209,4.0,4.0,67,0.00,,,0.00,meteohub,2013-07-19 03:13:00,
2013-07-18 23:14:00,86.7,77.7,30.01,SSW,209,4.0,4.0,67,0.00,,,0.00,meteohub,2013-07-19 03:14:00,
2013-07-18 23:15:00,86.7,77.7,30.01,SSW,209,3.0,4.0,67,0.00,,,0.00,meteohub,2013-07-19 03:15:00,
2013-07-18 23:16:00,86.7,77.7,30.01,SSW,209,3.0,4.0,67,0.00,,,0.00,meteohub,2013-07-19 03:16:00,
2013-07-18 23:18:00,86.7,77.9,30.01,SSW,209,4.0,4.0,67,0.00,,,0.00,meteohub,2013-07-19 03:18:00,
2013-07-18 23:19:00,86.7,77.9,30.01,SSW,209,3.0,4.0,67,0.00,,,0.00,meteohub,2013-07-19 03:19:00,
2013-07-18 23:20:00,86.7,77.9,30.01,SSW,209,2.0,4.0,67,0.00,,,0.00,meteohub,2013-07-19 03:20:00,
2013-07-18 23:21:00,86.7,78.1,30.01,SSW,209,3.0,4.0,67,0.00,,,0.00,meteohub,2013-07-19 03:21:00,
2013-07-18 23:23:00,86.7,78.1,30.01,SW,232,4.0,4.0,67,0.00,,,0.00,meteohub,2013-07-19 03:23:00,
2013-07-18 23:24:00,86.7,78.1,30.01,SSW,209,5.0,5.0,67,0.00,,,0.00,meteohub,2013-07-19 03:24:00,
2013-07-18 23:25:00,86.7,78.4,30.01,SSE,164,3.0,6.0,68,0.00,,,0.00,meteohub,2013-07-19 03:25:00,
2013-07-18 23:26:00,86.5,78.3,30.01,SSW,209,4.0,6.0,68,0.00,,,0.00,meteohub,2013-07-19 03:26:00,
2013-07-18 23:29:00,86.5,78.1,30.01,South,186,3.0,6.0,68,0.00,,,0.00,meteohub,2013-07-19 03:29:00,
2013-07-18 23:30:00,86.4,78.1,30.01,SSW,209,4.0,6.0,68,0.00,,,0.00,meteohub,2013-07-19 03:30:00,
2013-07-18 23:31:00,86.4,78.1,30.01,SSW,209,2.0,6.0,68,0.00,,,0.00,meteohub,2013-07-19 03:31:00,
2013-07-18 23:32:00,86.4,77.9,30.01,SSE,164,4.0,6.0,68,0.00,,,0.00,meteohub,2013-07-19 03:32:00,
2013-07-18 23:34:00,86.2,78.4,30.01,SSW,209,2.0,6.0,69,0.00,,,0.00,meteohub,2013-07-19 03:34:00,
2013-07-18 23:35:00,86.2,78.3,30.01,SSE,164,2.0,6.0,69,0.00,,,0.00,meteohub,2013-07-19 03:35:00,
2013-07-18 23:36:00,86.2,78.3,30.01,SSW,209,4.0,6.0,69,0.00,,,0.00,meteohub,2013-07-19 03:36:00,
2013-07-18 23:37:00,86.2,78.3,30.01,SW,232,3.0,6.0,69,0.00,,,0.00,meteohub,2013-07-19 03:37:00,
2013-07-18 23:39:00,86.0,78.1,30.01,SSW,209,4.0,6.0,69,0.00,,,0.00,meteohub,2013-07-19 03:39:00,
2013-07-18 23:40:00,86.0,78.1,30.01,SSW,209,5.0,6.0,69,0.00,,,0.00,meteohub,2013-07-19 03:40:00,
2013-07-18 23:41:00,86.2,78.3,30.01,SW,232,2.0,5.0,69,0.00,,,0.00,meteohub,2013-07-19 03:41:00,
2013-07-18 23:42:00,86.2,78.4,30.01,SSW,209,3.0,5.0,69,0.00,,,0.00,meteohub,2013-07-19 03:42:00,
2013-07-18 23:44:00,86.2,78.4,30.01,SSW,209,4.0,5.0,69,0.00,,,0.00,meteohub,2013-07-19 03:44:00,
2013-07-18 23:45:00,86.4,78.1,30.01,SSW,209,4.0,5.0,68,0.00,,,0.00,meteohub,2013-07-19 03:45:00,
2013-07-18 23:46:00,86.4,78.1,30.01,SSW,209,2.0,5.0,68,0.00,,,0.00,meteohub,2013-07-19 03:46:00,
2013-07-18 23:47:00,86.4,78.1,30.01,SSW,209,3.0,5.0,68,0.00,,,0.00,meteohub,2013-07-19 03:47:00,
2013-07-18 23:49:00,86.2,77.9,30.01,SSW,209,3.0,5.0,68,0.00,,,0.00,meteohub,2013-07-19 03:49:00,
2013-07-18 23:50:00,86.2,78.3,30.01,SSW,209,4.0,5.0,69,0.00,,,0.00,meteohub,2013-07-19 03:50:00,
2013-07-18 23:51:00,86.0,78.1,30.01,SSW,209,3.0,5.0,69,0.00,,,0.00,meteohub,2013-07-19 03:51:00,
2013-07-18 23:52:00,86.0,78.1,30.01,SSW,209,2.0,5.0,69,0.00,,,0.00,meteohub,2013-07-19 03:52:00,
2013-07-18 23:53:00,85.8,78.1,30.01,SSW,209,3.0,5.0,69,0.00,,,0.00,meteohub,2013-07-19 03:53:00,
2013-07-18 23:54:00,85.8,78.1,30.01,SSW,209,2.0,5.0,69,0.00,,,0.00,meteohub,2013-07-19 03:54:00,
2013-07-18 23:55:00,85.8,78.3,30.01,SW,232,4.0,4.0,70,0.00,,,0.00,meteohub,2013-07-19 03:55:00,
2013-07-18 23:57:00,85.8,78.3,30.01,SSW,209,3.0,4.0,70,0.00,,,0.00,meteohub,2013-07-19 03:57:00,
2013-07-18 23:58:00,85.8,78.3,30.01,SSW,209,2.0,4.0,70,0.00,,,0.00,meteohub,2013-07-19 03:58:00,